| time (UTC) | temp F | wind direction | speed MPH | gust MPH | rain 1hr in | rain 24hr in | rain mn in | humidity % | barometer mb |
| 20260502152322 | 45 | 294 | 4.0 | 10.0 | 0.00 | 0.00 | 0.00 | 58 | 1020.1 |
| 20260502152233 | 45 | 360 | 4.0 | 11.0 | 0.00 | 0.00 | 0.00 | 59 | 1020.1 |
| 20260502152147 | 45 | 286 | 6.0 | 13.0 | 0.00 | 0.00 | 0.00 | 59 | 1020.1 |
| 20260502152032 | 44 | 5 | 6.0 | 13.0 | 0.00 | 0.00 | 0.00 | 59 | 1020.1 |
| 20260502151942 | 44 | 5 | 4.0 | 13.0 | 0.00 | 0.00 | 0.00 | 61 | 1020.1 |
| 20260502151852 | 44 | 311 | 4.0 | 13.0 | 0.00 | 0.00 | 0.00 | 60 | 1020.2 |
| 20260502151741 | 44 | 319 | 4.0 | 13.0 | 0.00 | 0.00 | 0.00 | 57 | 1020.2 |
| 20260502151611 | 44 | 300 | 6.0 | 13.0 | 0.00 | 0.00 | 0.00 | 57 | 1020.2 |
| 20260502151533 | 44 | 296 | 8.0 | 13.0 | 0.00 | 0.00 | 0.00 | 57 | 1020.1 |
| 20260502151424 | 44 | 289 | 9.0 | 13.0 | 0.00 | 0.00 | 0.00 | 57 | 1020.2 |
| 20260502151334 | 44 | 329 | 5.0 | 12.0 | 0.00 | 0.00 | 0.00 | 59 | 1020.2 |
| 20260502151205 | 44 | 319 | 4.0 | 12.0 | 0.00 | 0.00 | 0.00 | 60 | 1020.2 |
| 20260502151115 | 44 | 283 | 4.0 | 12.0 | 0.00 | 0.00 | 0.00 | 61 | 1020.3 |
| 20260502151011 | 44 | 343 | 3.0 | 12.0 | 0.00 | 0.00 | 0.00 | 61 | 1020.2 |
| 20260502150922 | 43 | 316 | 5.0 | 12.0 | 0.00 | 0.00 | 0.00 | 58 | 1020.2 |
| 20260502150812 | 43 | 313 | 6.0 | 12.0 | 0.00 | 0.00 | 0.00 | 58 | 1020.2 |
| 20260502150722 | 43 | 335 | 6.0 | 12.0 | 0.00 | 0.00 | 0.00 | 58 | 1020.2 |
| 20260502150613 | 43 | 318 | 8.0 | 12.0 | 0.00 | 0.00 | 0.00 | 57 | 1020.2 |
| 20260502150504 | 43 | 348 | 9.0 | 12.0 | 0.00 | 0.00 | 0.00 | 57 | 1020.2 |
| 20260502150414 | 43 | 292 | 8.0 | 12.0 | 0.00 | 0.00 | 0.00 | 57 | 1020.2 |
| 20260502150327 | 44 | 283 | 8.0 | 12.0 | 0.00 | 0.00 | 0.00 | 57 | 1020.2 |
| 20260502150237 | 44 | 286 | 8.0 | 12.0 | 0.00 | 0.00 | 0.00 | 57 | 1020.2 |
| 20260502150118 | 44 | 299 | 8.0 | 12.0 | 0.00 | 0.00 | 0.00 | 57 | 1020.2 |
| 20260502140119 | 41 | 296 | 5.0 | 11.0 | 0.00 | 0.00 | 0.00 | 69 | 1019.9 |
| 20260502130741 | 41 | 315 | 4.0 | 8.0 | 0.00 | 0.00 | 0.00 | 79 | 1019.9 |
| 20260502130616 | 41 | 311 | 4.0 | 8.0 | 0.00 | 0.00 | 0.00 | 80 | 1019.9 |
| 20260502130506 | 40 | 355 | 4.0 | 8.0 | 0.00 | 0.00 | 0.00 | 81 | 1020.0 |
| 20260502130419 | 40 | 355 | 4.0 | 8.0 | 0.00 | 0.00 | 0.00 | 81 | 1020.0 |
| 20260502130311 | 40 | 346 | 3.0 | 5.0 | 0.00 | 0.00 | 0.00 | 83 | 1020.0 |
| 20260502130220 | 40 | 15 | 3.0 | 5.0 | 0.00 | 0.00 | 0.00 | 83 | 1020.0 |
| 20260502130111 | 40 | 21 | 2.0 | 5.0 | 0.00 | 0.00 | 0.00 | 83 | 1019.9 |
| 20260502123811 | 39 | 13 | 2.0 | 4.0 | 0.00 | 0.00 | 0.00 | 88 | 1020.0 |
| 20260502123701 | 39 | 320 | 2.0 | 4.0 | 0.00 | 0.00 | 0.00 | 88 | 1020.1 |
| 20260502123613 | 39 | 320 | 3.0 | 4.0 | 0.00 | 0.00 | 0.00 | 88 | 1019.9 |
| 20260502123503 | 39 | 320 | 2.0 | 4.0 | 0.00 | 0.00 | 0.00 | 88 | 1019.9 |
| 20260502123416 | 39 | 17 | 2.0 | 4.0 | 0.00 | 0.00 | 0.00 | 89 | 1019.9 |
| 20260502123329 | 39 | 44 | 2.0 | 4.0 | 0.00 | 0.00 | 0.00 | 89 | 1020.0 |
| 20260502123217 | 39 | 44 | 3.0 | 4.0 | 0.00 | 0.00 | 0.00 | 89 | 1020.0 |
| 20260502123108 | 39 | 44 | 2.0 | 4.0 | 0.00 | 0.00 | 0.00 | 89 | 1019.9 |
| 20260502123033 | 39 | 15 | 1.0 | 3.0 | 0.00 | 0.00 | 0.00 | 89 | 1020.0 |
| 20260502122904 | 39 | 316 | 2.0 | 3.0 | 0.00 | 0.00 | 0.00 | 89 | 1019.9 |
| 20260502122814 | 40 | 316 | 2.0 | 3.0 | 0.00 | 0.00 | 0.00 | 90 | 1020.0 |
| 20260502122725 | 40 | 316 | 1.0 | 3.0 | 0.00 | 0.00 | 0.00 | 90 | 1020.1 |
| 20260502122636 | 40 | 316 | 1.0 | 3.0 | 0.00 | 0.00 | 0.00 | 89 | 1020.1 |
| 20260502122507 | 40 | 316 | 2.0 | 3.0 | 0.00 | 0.00 | 0.00 | 89 | 1020.1 |
| 20260502122417 | 40 | 316 | 1.0 | 2.0 | 0.00 | 0.00 | 0.00 | 90 | 1020.0 |
| 20260502122308 | 40 | 316 | 1.0 | 2.0 | 0.00 | 0.00 | 0.00 | 91 | 1020.0 |
| 20260502122219 | 40 | 316 | 1.0 | 2.0 | 0.00 | 0.00 | 0.00 | 91 | 1019.9 |
| 20260502122131 | 40 | 316 | 0.0 | 1.0 | 0.00 | 0.00 | 0.00 | 91 | 1019.9 |
| 20260502122004 | 40 | 316 | 0.0 | 1.0 | 0.00 | 0.00 | 0.00 | 92 | 1019.9 |
| 20260502121915 | 40 | 316 | 0.0 | 1.0 | 0.00 | 0.00 | 0.00 | 92 | 1019.9 |
| 20260502121805 | 40 | 316 | 0.0 | 1.0 | 0.00 | 0.00 | 0.00 | 92 | 1020.0 |
| 20260502121715 | 39 | 316 | 0.0 | 1.0 | 0.00 | 0.00 | 0.00 | 92 | 1020.0 |
| 20260502121605 | 39 | 316 | 0.0 | 0.0 | 0.00 | 0.00 | 0.00 | 93 | 1019.9 |
| 20260502121527 | 39 | 316 | 0.0 | 0.0 | 0.00 | 0.00 | 0.00 | 93 | 1019.9 |
| 20260502121416 | 39 | 316 | 0.0 | 0.0 | 0.00 | 0.00 | 0.00 | 93 | 1019.9 |
| 20260502121307 | 39 | 316 | 0.0 | 0.0 | 0.00 | 0.00 | 0.00 | 93 | 1019.9 |
| 20260502121202 | 39 | 316 | 0.0 | 0.0 | 0.00 | 0.00 | 0.00 | 94 | 1019.9 |
| 20260502121113 | 39 | 316 | 0.0 | 0.0 | 0.00 | 0.00 | 0.00 | 94 | 1019.9 |
| 20260502121023 | 39 | 316 | 0.0 | 0.0 | 0.00 | 0.00 | 0.00 | 93 | 1019.9 |
| 20260502120935 | 38 | 316 | 0.0 | 0.0 | 0.00 | 0.00 | 0.00 | 93 | 1019.8 |
| 20260502120804 | 38 | 316 | 0.0 | 0.0 | 0.00 | 0.00 | 0.00 | 93 | 1019.9 |
| 20260502120715 | 38 | 316 | 0.0 | 0.0 | 0.00 | 0.00 | 0.00 | 94 | 1019.8 |
| 20260502120605 | 38 | 316 | 0.0 | 0.0 | 0.00 | 0.00 | 0.00 | 94 | 1019.9 |
| 20260502120515 | 38 | 316 | 0.0 | 0.0 | 0.00 | 0.00 | 0.00 | 94 | 1019.9 |
| 20260502120406 | 38 | 316 | 0.0 | 0.0 | 0.00 | 0.00 | 0.00 | 94 | 1019.8 |
| 20260502120302 | 38 | 316 | 0.0 | 0.0 | 0.00 | 0.00 | 0.00 | 94 | 1019.8 |
| 20260502120211 | 37 | 316 | 0.0 | 0.0 | 0.00 | 0.00 | 0.00 | 94 | 1019.9 |
| 20260502115912 | 37 | 316 | 0.0 | 0.0 | 0.00 | 0.00 | 0.00 | 95 | 1019.8 |
| 20260502115821 | 37 | 316 | 0.0 | 0.0 | 0.00 | 0.00 | 0.00 | 95 | 1019.8 |
| 20260502115711 | 37 | 316 | 0.0 | 0.0 | 0.00 | 0.00 | 0.00 | 95 | 1019.8 |
| 20260502115602 | 36 | 316 | 0.0 | 0.0 | 0.00 | 0.00 | 0.00 | 95 | 1019.7 |
| 20260502115513 | 36 | 316 | 0.0 | 0.0 | 0.00 | 0.00 | 0.00 | 95 | 1019.8 |
| 20260502115408 | 36 | 316 | 0.0 | 0.0 | 0.00 | 0.00 | 0.00 | 95 | 1019.7 |
| 20260502115319 | 36 | 316 | 0.0 | 0.0 | 0.00 | 0.00 | 0.00 | 95 | 1019.8 |
| 20260502115210 | 36 | 316 | 0.0 | 0.0 | 0.00 | 0.00 | 0.00 | 95 | 1019.7 |
| 20260502115120 | 36 | 316 | 0.0 | 0.0 | 0.00 | 0.00 | 0.00 | 96 | 1019.7 |
| 20260502115012 | 35 | 316 | 0.0 | 0.0 | 0.00 | 0.00 | 0.00 | 95 | 1019.7 |
| 20260502114903 | 35 | 316 | 0.0 | 0.0 | 0.00 | 0.00 | 0.00 | 96 | 1019.7 |
| 20260502114813 | 35 | 316 | 0.0 | 0.0 | 0.00 | 0.00 | 0.00 | 96 | 1019.6 |
| 20260502114703 | 35 | 316 | 0.0 | 0.0 | 0.00 | 0.00 | 0.00 | 95 | 1019.7 |
| 20260502114613 | 35 | 316 | 0.0 | 0.0 | 0.00 | 0.00 | 0.00 | 95 | 1019.7 |
| 20260502114539 | 34 | 316 | 0.0 | 0.0 | 0.00 | 0.00 | 0.00 | 95 | 1019.7 |
| 20260502114409 | 34 | 316 | 0.0 | 0.0 | 0.00 | 0.00 | 0.00 | 95 | 1019.6 |
| 20260502114320 | 34 | 316 | 0.0 | 0.0 | 0.00 | 0.00 | 0.00 | 95 | 1019.7 |
| 20260502114212 | 34 | 316 | 0.0 | 0.0 | 0.00 | 0.00 | 0.00 | 95 | 1019.7 |
| 20260502114104 | 34 | 316 | 0.0 | 0.0 | 0.00 | 0.00 | 0.00 | 95 | 1019.6 |
| 20260502114015 | 34 | 316 | 0.0 | 0.0 | 0.00 | 0.00 | 0.00 | 95 | 1019.6 |
| 20260502113906 | 34 | 316 | 0.0 | 0.0 | 0.00 | 0.00 | 0.00 | 95 | 1019.6 |
| 20260502113817 | 33 | 316 | 0.0 | 0.0 | 0.00 | 0.00 | 0.00 | 95 | 1019.6 |
| 20260502113710 | 33 | 316 | 0.0 | 0.0 | 0.00 | 0.00 | 0.00 | 95 | 1019.6 |
| 20260502113621 | 33 | 316 | 0.0 | 0.0 | 0.00 | 0.00 | 0.00 | 95 | 1019.6 |
| 20260502113532 | 33 | 316 | 0.0 | 0.0 | 0.00 | 0.00 | 0.00 | 95 | 1019.6 |
| 20260502113403 | 33 | 316 | 0.0 | 0.0 | 0.00 | 0.00 | 0.00 | 95 | 1019.5 |
| 20260502113316 | 33 | 316 | 0.0 | 0.0 | 0.00 | 0.00 | 0.00 | 95 | 1019.5 |
| 20260502113206 | 33 | 316 | 0.0 | 0.0 | 0.00 | 0.00 | 0.00 | 95 | 1019.6 |
| 20260502113118 | 33 | 316 | 0.0 | 0.0 | 0.00 | 0.00 | 0.00 | 96 | 1019.5 |
| 20260502113039 | 33 | 316 | 0.0 | 0.0 | 0.00 | 0.00 | 0.00 | 96 | 1019.6 |
| 20260502112928 | 32 | 316 | 0.0 | 0.0 | 0.00 | 0.00 | 0.00 | 96 | 1019.5 |
| 20260502112840 | 32 | 316 | 0.0 | 0.0 | 0.00 | 0.00 | 0.00 | 96 | 1019.5 |
| 20260502112729 | 32 | 316 | 0.0 | 0.0 | 0.00 | 0.00 | 0.00 | 96 | 1019.5 |
| 20260502112603 | 32 | 316 | 0.0 | 0.0 | 0.00 | 0.00 | 0.00 | 96 | 1019.5 |
| 20260502112515 | 32 | 316 | 0.0 | 0.0 | 0.00 | 0.00 | 0.00 | 96 | 1019.4 |
| 20260502112404 | 32 | 316 | 0.0 | 0.0 | 0.00 | 0.00 | 0.00 | 96 | 1019.5 |
| 20260502112316 | 32 | 316 | 0.0 | 0.0 | 0.00 | 0.00 | 0.00 | 96 | 1019.4 |
| 20260502112227 | 31 | 316 | 0.0 | 0.0 | 0.00 | 0.00 | 0.00 | 96 | 1019.4 |
| 20260502112139 | 31 | 316 | 0.0 | 0.0 | 0.00 | 0.00 | 0.00 | 96 | 1019.4 |
| 20260502112009 | 31 | 316 | 0.0 | 0.0 | 0.00 | 0.00 | 0.00 | 96 | 1019.5 |
| 20260502111918 | 31 | 316 | 0.0 | 0.0 | 0.00 | 0.00 | 0.00 | 96 | 1019.4 |
| 20260502111808 | 31 | 316 | 0.0 | 0.0 | 0.00 | 0.00 | 0.00 | 95 | 1019.4 |
| 20260502111724 | 31 | 316 | 0.0 | 0.0 | 0.00 | 0.00 | 0.00 | 95 | 1019.3 |
| 20260502111635 | 30 | 316 | 0.0 | 0.0 | 0.00 | 0.00 | 0.00 | 95 | 1019.4 |
| 20260502111557 | 30 | 316 | 0.0 | 0.0 | 0.00 | 0.00 | 0.00 | 95 | 1019.4 |
| 20260502111448 | 30 | 316 | 0.0 | 0.0 | 0.00 | 0.00 | 0.00 | 95 | 1019.4 |
| 20260502111338 | 30 | 316 | 0.0 | 0.0 | 0.00 | 0.00 | 0.00 | 95 | 1019.3 |
| 20260502111206 | 30 | 316 | 0.0 | 0.0 | 0.00 | 0.00 | 0.00 | 95 | 1019.4 |
| 20260502111117 | 30 | 316 | 0.0 | 0.0 | 0.00 | 0.00 | 0.00 | 95 | 1019.4 |
| 20260502111007 | 30 | 316 | 0.0 | 0.0 | 0.00 | 0.00 | 0.00 | 95 | 1019.3 |
| 20260502110918 | 30 | 316 | 0.0 | 0.0 | 0.00 | 0.00 | 0.00 | 94 | 1019.4 |
| 20260502110809 | 30 | 316 | 0.0 | 0.0 | 0.00 | 0.00 | 0.00 | 95 | 1019.4 |
| 20260502110724 | 30 | 316 | 0.0 | 0.0 | 0.00 | 0.00 | 0.00 | 95 | 1019.4 |
| 20260502110635 | 29 | 316 | 0.0 | 0.0 | 0.00 | 0.00 | 0.00 | 94 | 1019.3 |
| 20260502110524 | 29 | 316 | 0.0 | 0.0 | 0.00 | 0.00 | 0.00 | 94 | 1019.3 |
| 20260502110436 | 29 | 316 | 0.0 | 0.0 | 0.00 | 0.00 | 0.00 | 94 | 1019.3 |
| 20260502110309 | 29 | 316 | 0.0 | 0.0 | 0.00 | 0.00 | 0.00 | 94 | 1019.3 |
| 20260502110218 | 29 | 316 | 0.0 | 0.0 | 0.00 | 0.00 | 0.00 | 94 | 1019.3 |
| 20260502110120 | 29 | 316 | 0.0 | 0.0 | 0.00 | 0.00 | 0.00 | 94 | 1019.3 |
| 20260502110022 | 29 | 316 | 0.0 | 0.0 | 0.00 | 0.00 | 0.00 | 94 | 1019.3 |
| 20260502105912 | 29 | 316 | 0.0 | 0.0 | 0.00 | 0.00 | 0.00 | 94 | 1019.4 |
| 20260502105823 | 29 | 316 | 0.0 | 0.0 | 0.00 | 0.00 | 0.00 | 94 | 1019.3 |
| 20260502105714 | 29 | 316 | 0.0 | 0.0 | 0.00 | 0.00 | 0.00 | 94 | 1019.3 |
| 20260502105608 | 29 | 316 | 0.0 | 0.0 | 0.00 | 0.00 | 0.00 | 94 | 1019.3 |
| 20260502105519 | 29 | 316 | 0.0 | 0.0 | 0.00 | 0.00 | 0.00 | 94 | 1019.3 |
| 20260502105411 | 29 | 316 | 0.0 | 0.0 | 0.00 | 0.00 | 0.00 | 94 | 1019.3 |
| 20260502105301 | 29 | 316 | 0.0 | 0.0 | 0.00 | 0.00 | 0.00 | 94 | 1019.3 |
| 20260502105213 | 29 | 316 | 0.0 | 0.0 | 0.00 | 0.00 | 0.00 | 94 | 1019.3 |
| 20260502105122 | 29 | 316 | 0.0 | 0.0 | 0.00 | 0.00 | 0.00 | 94 | 1019.3 |
| 20260502105013 | 29 | 316 | 0.0 | 0.0 | 0.00 | 0.00 | 0.00 | 94 | 1019.2 |
| 20260502104924 | 29 | 316 | 0.0 | 0.0 | 0.00 | 0.00 | 0.00 | 94 | 1019.2 |
| 20260502104834 | 29 | 316 | 0.0 | 0.0 | 0.00 | 0.00 | 0.00 | 94 | 1019.2 |
| 20260502104708 | 29 | 316 | 0.0 | 0.0 | 0.00 | 0.00 | 0.00 | 94 | 1019.2 |
| 20260502104619 | 29 | 316 | 0.0 | 0.0 | 0.00 | 0.00 | 0.00 | 94 | 1019.3 |
| 20260502104541 | 29 | 316 | 0.0 | 0.0 | 0.00 | 0.00 | 0.00 | 94 | 1019.3 |
| 20260502104412 | 29 | 316 | 0.0 | 0.0 | 0.00 | 0.00 | 0.00 | 94 | 1019.4 |
| 20260502104302 | 29 | 316 | 0.0 | 0.0 | 0.00 | 0.00 | 0.00 | 94 | 1019.4 |
| 20260502104214 | 29 | 316 | 0.0 | 0.0 | 0.00 | 0.00 | 0.00 | 94 | 1019.3 |
| 20260502104105 | 29 | 316 | 0.0 | 0.0 | 0.00 | 0.00 | 0.00 | 94 | 1019.4 |
| 20260502104016 | 29 | 316 | 0.0 | 0.0 | 0.00 | 0.00 | 0.00 | 94 | 1019.4 |
| 20260502103927 | 29 | 316 | 0.0 | 0.0 | 0.00 | 0.00 | 0.00 | 94 | 1019.3 |
| 20260502103837 | 29 | 316 | 0.0 | 0.0 | 0.00 | 0.00 | 0.00 | 94 | 1019.3 |
| 20260502103713 | 30 | 316 | 0.0 | 0.0 | 0.00 | 0.00 | 0.00 | 94 | 1019.3 |
| 20260502103603 | 29 | 316 | 0.0 | 0.0 | 0.00 | 0.00 | 0.00 | 94 | 1019.3 |
| 20260502103514 | 30 | 316 | 0.0 | 0.0 | 0.00 | 0.00 | 0.00 | 94 | 1019.4 |
| 20260502103404 | 30 | 316 | 0.0 | 0.0 | 0.00 | 0.00 | 0.00 | 94 | 1019.4 |
| 20260502103317 | 30 | 316 | 0.0 | 0.0 | 0.00 | 0.00 | 0.00 | 94 | 1019.3 |
| 20260502103206 | 30 | 316 | 0.0 | 0.0 | 0.00 | 0.00 | 0.00 | 94 | 1019.4 |
| 20260502103117 | 30 | 316 | 0.0 | 0.0 | 0.00 | 0.00 | 0.00 | 94 | 1019.4 |
| 20260502103039 | 30 | 316 | 0.0 | 0.0 | 0.00 | 0.00 | 0.00 | 94 | 1019.3 |
| 20260502102913 | 30 | 316 | 0.0 | 0.0 | 0.00 | 0.00 | 0.00 | 94 | 1019.3 |
| 20260502102824 | 30 | 316 | 0.0 | 0.0 | 0.00 | 0.00 | 0.00 | 94 | 1019.3 |
| 20260502102735 | 30 | 316 | 0.0 | 0.0 | 0.00 | 0.00 | 0.00 | 94 | 1019.4 |
| 20260502102604 | 30 | 316 | 0.0 | 0.0 | 0.00 | 0.00 | 0.00 | 94 | 1019.4 |
| 20260502102515 | 30 | 316 | 0.0 | 0.0 | 0.00 | 0.00 | 0.00 | 94 | 1019.3 |
| 20260502102406 | 30 | 316 | 0.0 | 0.0 | 0.00 | 0.00 | 0.00 | 94 | 1019.4 |
| 20260502102318 | 30 | 316 | 0.0 | 0.0 | 0.00 | 0.00 | 0.00 | 94 | 1019.3 |
| 20260502102209 | 30 | 316 | 0.0 | 0.0 | 0.00 | 0.00 | 0.00 | 93 | 1019.3 |
| 20260502102120 | 30 | 316 | 0.0 | 0.0 | 0.00 | 0.00 | 0.00 | 93 | 1019.3 |
| 20260502102032 | 30 | 316 | 0.0 | 0.0 | 0.00 | 0.00 | 0.00 | 93 | 1019.3 |
| 20260502101947 | 30 | 316 | 0.0 | 0.0 | 0.00 | 0.00 | 0.00 | 93 | 1019.3 |
| 20260502101859 | 30 | 316 | 0.0 | 0.0 | 0.00 | 0.00 | 0.00 | 93 | 1019.3 |
| 20260502101749 | 30 | 316 | 0.0 | 0.0 | 0.00 | 0.00 | 0.00 | 93 | 1019.3 |
| 20260502101640 | 30 | 316 | 0.0 | 0.0 | 0.00 | 0.00 | 0.00 | 93 | 1019.3 |
| 20260502101541 | 30 | 316 | 0.0 | 0.0 | 0.00 | 0.00 | 0.00 | 93 | 1019.3 |
| 20260502101430 | 30 | 316 | 0.0 | 0.0 | 0.00 | 0.00 | 0.00 | 93 | 1019.3 |
| 20260502101320 | 30 | 316 | 0.0 | 0.0 | 0.00 | 0.00 | 0.00 | 93 | 1019.3 |
| 20260502101212 | 30 | 316 | 0.0 | 0.0 | 0.00 | 0.00 | 0.00 | 93 | 1019.3 |
| 20260502101123 | 30 | 316 | 0.0 | 0.0 | 0.00 | 0.00 | 0.00 | 93 | 1019.3 |
| 20260502101013 | 30 | 316 | 0.0 | 0.0 | 0.00 | 0.00 | 0.00 | 93 | 1019.3 |
| 20260502100905 | 30 | 316 | 0.0 | 0.0 | 0.00 | 0.00 | 0.00 | 93 | 1019.3 |
| 20260502100820 | 30 | 316 | 0.0 | 0.0 | 0.00 | 0.00 | 0.00 | 93 | 1019.3 |
| 20260502100710 | 30 | 316 | 0.0 | 0.0 | 0.00 | 0.00 | 0.00 | 93 | 1019.3 |
| 20260502100621 | 30 | 316 | 0.0 | 0.0 | 0.00 | 0.00 | 0.00 | 93 | 1019.3 |
| 20260502100511 | 30 | 316 | 0.0 | 0.0 | 0.00 | 0.00 | 0.00 | 94 | 1019.2 |
| 20260502100403 | 30 | 316 | 0.0 | 0.0 | 0.00 | 0.00 | 0.00 | 94 | 1019.2 |
| 20260502100314 | 30 | 316 | 0.0 | 0.0 | 0.00 | 0.00 | 0.00 | 94 | 1019.3 |
| 20260502100205 | 30 | 316 | 0.0 | 0.0 | 0.00 | 0.00 | 0.00 | 94 | 1019.3 |
| 20260502100114 | 30 | 316 | 0.0 | 0.0 | 0.00 | 0.00 | 0.00 | 94 | 1019.2 |
| 20260502091425 | 30 | 316 | 0.0 | 0.0 | 0.00 | 0.00 | 0.00 | 93 | 1019.1 |
| 20260502091315 | 31 | 316 | 0.0 | 0.0 | 0.00 | 0.00 | 0.00 | 93 | 1019.1 |
| 20260502091206 | 31 | 316 | 0.0 | 0.0 | 0.00 | 0.00 | 0.00 | 93 | 1019.2 |
| 20260502091102 | 30 | 316 | 0.0 | 0.0 | 0.00 | 0.00 | 0.00 | 93 | 1019.1 |
| 20260502091012 | 30 | 316 | 0.0 | 0.0 | 0.00 | 0.00 | 0.00 | 93 | 1019.1 |
| 20260502090923 | 30 | 316 | 0.0 | 0.0 | 0.00 | 0.00 | 0.00 | 93 | 1019.1 |
| 20260502090813 | 31 | 316 | 0.0 | 0.0 | 0.00 | 0.00 | 0.00 | 93 | 1019.0 |
| 20260502090703 | 31 | 316 | 0.0 | 0.0 | 0.00 | 0.00 | 0.00 | 93 | 1019.2 |
| 20260502090615 | 31 | 316 | 0.0 | 0.0 | 0.00 | 0.00 | 0.00 | 93 | 1019.1 |
| 20260502090525 | 31 | 316 | 0.0 | 0.0 | 0.00 | 0.00 | 0.00 | 93 | 1019.0 |
| 20260502090416 | 31 | 316 | 0.0 | 0.0 | 0.00 | 0.00 | 0.00 | 93 | 1019.1 |
| 20260502090308 | 31 | 316 | 0.0 | 0.0 | 0.00 | 0.00 | 0.00 | 93 | 1019.1 |
| 20260502090216 | 31 | 316 | 0.0 | 0.0 | 0.00 | 0.00 | 0.00 | 93 | 1019.0 |
| 20260502090127 | 31 | 316 | 0.0 | 0.0 | 0.00 | 0.00 | 0.00 | 93 | 1019.0 |
| 20260502080103 | 31 | 316 | 0.0 | 0.0 | 0.00 | 0.00 | 0.00 | 92 | 1018.9 |
| 20260502071409 | 31 | 316 | 0.0 | 0.0 | 0.00 | 0.00 | 0.00 | 91 | 1018.8 |
| 20260502071303 | 31 | 316 | 0.0 | 0.0 | 0.00 | 0.00 | 0.00 | 91 | 1018.9 |
| 20260502071214 | 31 | 316 | 0.0 | 0.0 | 0.00 | 0.00 | 0.00 | 91 | 1018.9 |
| 20260502071126 | 31 | 316 | 0.0 | 0.0 | 0.00 | 0.00 | 0.00 | 91 | 1018.8 |
| 20260502071036 | 31 | 316 | 0.0 | 0.0 | 0.00 | 0.00 | 0.00 | 91 | 1018.8 |
| 20260502070906 | 31 | 316 | 0.0 | 0.0 | 0.00 | 0.00 | 0.00 | 91 | 1018.8 |
| 20260502070817 | 31 | 316 | 0.0 | 0.0 | 0.00 | 0.00 | 0.00 | 91 | 1018.9 |
| 20260502070729 | 31 | 316 | 0.0 | 0.0 | 0.00 | 0.00 | 0.00 | 91 | 1018.8 |
| 20260502070640 | 32 | 316 | 0.0 | 0.0 | 0.00 | 0.00 | 0.00 | 91 | 1018.9 |
| 20260502070510 | 32 | 316 | 0.0 | 0.0 | 0.00 | 0.00 | 0.00 | 91 | 1018.9 |
| 20260502070404 | 32 | 316 | 0.0 | 0.0 | 0.00 | 0.00 | 0.00 | 91 | 1019.0 |
| 20260502070317 | 32 | 316 | 0.0 | 0.0 | 0.00 | 0.00 | 0.00 | 91 | 1019.0 |
| 20260502070208 | 32 | 316 | 0.0 | 0.0 | 0.00 | 0.03 | 0.00 | 91 | 1019.0 |
| 20260502070119 | 32 | 316 | 0.0 | 0.0 | 0.00 | 0.03 | 0.00 | 91 | 1019.0 |
| 20260502070041 | 32 | 316 | 0.0 | 0.0 | 0.00 | 0.03 | 0.00 | 91 | 1019.0 |
| 20260502065930 | 32 | 316 | 0.0 | 0.0 | 0.00 | 0.03 | 0.00 | 91 | 1019.0 |
| 20260502065842 | 32 | 316 | 0.0 | 0.0 | 0.00 | 0.03 | 0.00 | 91 | 1019.0 |
| 20260502065730 | 32 | 316 | 0.0 | 0.0 | 0.00 | 0.03 | 0.00 | 91 | 1018.9 |
| 20260502065621 | 32 | 316 | 0.0 | 0.0 | 0.00 | 0.03 | 0.00 | 90 | 1019.0 |
| 20260502065532 | 32 | 316 | 0.0 | 0.0 | 0.00 | 0.03 | 0.00 | 90 | 1019.0 |
| 20260502065401 | 32 | 316 | 0.0 | 0.0 | 0.00 | 0.03 | 0.00 | 90 | 1019.0 |
| 20260502065317 | 32 | 316 | 0.0 | 0.0 | 0.00 | 0.03 | 0.00 | 90 | 1019.0 |
| 20260502065207 | 32 | 316 | 0.0 | 0.0 | 0.00 | 0.03 | 0.00 | 91 | 1018.9 |
| 20260502065118 | 32 | 316 | 0.0 | 0.0 | 0.00 | 0.03 | 0.00 | 90 | 1018.9 |
| 20260502065009 | 32 | 316 | 0.0 | 1.0 | 0.00 | 0.03 | 0.00 | 90 | 1018.9 |
| 20260502064920 | 32 | 316 | 0.0 | 1.0 | 0.00 | 0.03 | 0.00 | 90 | 1018.9 |
| 20260502064829 | 32 | 316 | 0.0 | 1.0 | 0.00 | 0.03 | 0.00 | 90 | 1019.0 |
| 20260502064740 | 32 | 316 | 0.0 | 2.0 | 0.00 | 0.03 | 0.00 | 90 | 1019.0 |
| 20260502064630 | 32 | 316 | 0.0 | 2.0 | 0.00 | 0.03 | 0.00 | 90 | 1019.0 |
| 20260502064532 | 32 | 316 | 0.0 | 2.0 | 0.00 | 0.03 | 0.00 | 90 | 1018.9 |
| 20260502064402 | 32 | 316 | 0.0 | 2.0 | 0.00 | 0.03 | 0.00 | 90 | 1019.0 |
| 20260502064316 | 32 | 316 | 0.0 | 2.0 | 0.00 | 0.03 | 0.00 | 90 | 1019.1 |
| 20260502064226 | 32 | 316 | 0.0 | 2.0 | 0.00 | 0.03 | 0.00 | 90 | 1019.1 |
| 20260502064138 | 32 | 316 | 0.0 | 2.0 | 0.00 | 0.03 | 0.00 | 90 | 1019.0 |
| 20260502064028 | 32 | 316 | 1.0 | 2.0 | 0.00 | 0.03 | 0.00 | 90 | 1019.0 |
| 20260502063939 | 32 | 316 | 1.0 | 2.0 | 0.00 | 0.03 | 0.00 | 90 | 1019.1 |
| 20260502063829 | 32 | 316 | 1.0 | 2.0 | 0.00 | 0.03 | 0.00 | 90 | 1019.1 |
| 20260502063741 | 32 | 316 | 1.0 | 2.0 | 0.00 | 0.03 | 0.00 | 90 | 1019.1 |
| 20260502063610 | 32 | 316 | 1.0 | 2.0 | 0.00 | 0.03 | 0.00 | 90 | 1019.1 |
| 20260502063520 | 32 | 316 | 1.0 | 2.0 | 0.00 | 0.03 | 0.00 | 90 | 1019.0 |
| 20260502063410 | 32 | 316 | 1.0 | 2.0 | 0.00 | 0.03 | 0.00 | 90 | 1019.0 |
| 20260502063308 | 32 | 316 | 0.0 | 0.0 | 0.00 | 0.03 | 0.00 | 90 | 1019.0 |
| 20260502063217 | 32 | 316 | 0.0 | 0.0 | 0.00 | 0.03 | 0.00 | 90 | 1019.1 |
| 20260502063107 | 32 | 316 | 0.0 | 0.0 | 0.00 | 0.03 | 0.00 | 90 | 1019.0 |
| 20260502063030 | 32 | 316 | 0.0 | 0.0 | 0.00 | 0.03 | 0.00 | 90 | 1019.0 |
| 20260502062922 | 32 | 316 | 0.0 | 0.0 | 0.00 | 0.03 | 0.00 | 90 | 1019.0 |
| 20260502062832 | 32 | 316 | 0.0 | 0.0 | 0.00 | 0.03 | 0.00 | 90 | 1019.0 |
| 20260502062723 | 32 | 316 | 0.0 | 0.0 | 0.00 | 0.03 | 0.00 | 90 | 1019.0 |
| 20260502062613 | 32 | 316 | 0.0 | 0.0 | 0.00 | 0.03 | 0.00 | 90 | 1019.0 |
| 20260502062523 | 32 | 316 | 0.0 | 0.0 | 0.00 | 0.03 | 0.00 | 90 | 1018.9 |
| 20260502062413 | 32 | 316 | 0.0 | 0.0 | 0.00 | 0.03 | 0.00 | 90 | 1019.0 |
| 20260502062306 | 32 | 316 | 0.0 | 0.0 | 0.00 | 0.03 | 0.00 | 90 | 1019.0 |
| 20260502062219 | 32 | 316 | 0.0 | 0.0 | 0.00 | 0.03 | 0.00 | 90 | 1019.0 |
| 20260502062110 | 32 | 316 | 0.0 | 0.0 | 0.00 | 0.03 | 0.00 | 90 | 1019.1 |
| 20260502062020 | 32 | 316 | 0.0 | 0.0 | 0.00 | 0.03 | 0.00 | 89 | 1019.0 |
| 20260502061910 | 32 | 316 | 0.0 | 0.0 | 0.00 | 0.03 | 0.00 | 89 | 1019.1 |
| 20260502061803 | 32 | 316 | 0.0 | 0.0 | 0.00 | 0.03 | 0.00 | 89 | 1019.0 |
| 20260502061714 | 32 | 316 | 0.0 | 0.0 | 0.00 | 0.03 | 0.00 | 89 | 1019.1 |
| 20260502061604 | 32 | 316 | 0.0 | 0.0 | 0.00 | 0.03 | 0.00 | 89 | 1019.2 |
| 20260502061527 | 32 | 316 | 0.0 | 0.0 | 0.00 | 0.03 | 0.00 | 89 | 1019.1 |
| 20260502061314 | 32 | 316 | 0.0 | 0.0 | 0.00 | 0.03 | 0.00 | 89 | 1019.1 |
| 20260502061205 | 32 | 316 | 0.0 | 0.0 | 0.00 | 0.03 | 0.00 | 89 | 1019.1 |
| 20260502061115 | 32 | 316 | 0.0 | 0.0 | 0.00 | 0.03 | 0.00 | 89 | 1019.1 |
| 20260502061007 | 32 | 316 | 0.0 | 0.0 | 0.00 | 0.03 | 0.00 | 89 | 1019.2 |
| 20260502060918 | 32 | 316 | 0.0 | 0.0 | 0.00 | 0.03 | 0.00 | 89 | 1019.1 |
| 20260502060808 | 32 | 316 | 0.0 | 0.0 | 0.00 | 0.03 | 0.00 | 89 | 1019.1 |
| 20260502060719 | 32 | 316 | 0.0 | 0.0 | 0.00 | 0.03 | 0.00 | 89 | 1019.1 |
| 20260502060608 | 32 | 316 | 0.0 | 0.0 | 0.00 | 0.03 | 0.00 | 89 | 1019.1 |
| 20260502060522 | 32 | 316 | 0.0 | 0.0 | 0.00 | 0.03 | 0.00 | 89 | 1019.1 |
| 20260502060413 | 32 | 316 | 0.0 | 0.0 | 0.00 | 0.03 | 0.00 | 88 | 1019.1 |
| 20260502060304 | 32 | 316 | 0.0 | 0.0 | 0.00 | 0.03 | 0.00 | 88 | 1019.2 |
| 20260502060212 | 32 | 316 | 0.0 | 0.0 | 0.00 | 0.18 | 0.00 | 88 | 1019.2 |
| 20260502060024 | 32 | 316 | 0.0 | 0.0 | 0.00 | 0.18 | 0.00 | 88 | 1019.1 |
| 20260502055915 | 32 | 316 | 0.0 | 0.0 | 0.00 | 0.18 | 0.00 | 88 | 1019.1 |
| 20260502055805 | 32 | 316 | 0.0 | 0.0 | 0.00 | 0.18 | 0.00 | 88 | 1019.2 |
| 20260502055717 | 32 | 316 | 0.0 | 0.0 | 0.00 | 0.18 | 0.00 | 88 | 1019.2 |
| 20260502055613 | 32 | 316 | 0.0 | 0.0 | 0.00 | 0.18 | 0.00 | 88 | 1019.2 |
| 20260502055524 | 32 | 316 | 0.0 | 0.0 | 0.00 | 0.18 | 0.00 | 88 | 1019.2 |
| 20260502055435 | 32 | 316 | 0.0 | 0.0 | 0.00 | 0.18 | 0.00 | 88 | 1019.3 |
| 20260502055306 | 32 | 316 | 0.0 | 0.0 | 0.00 | 0.18 | 0.00 | 88 | 1019.3 |
| 20260502055217 | 32 | 316 | 0.0 | 0.0 | 0.00 | 0.18 | 0.00 | 88 | 1019.4 |
| 20260502055109 | 32 | 316 | 0.0 | 0.0 | 0.00 | 0.18 | 0.00 | 88 | 1019.3 |
| 20260502055021 | 32 | 316 | 0.0 | 0.0 | 0.00 | 0.18 | 0.00 | 88 | 1019.2 |
| 20260502054912 | 32 | 316 | 0.0 | 0.0 | 0.00 | 0.18 | 0.00 | 88 | 1019.2 |
| 20260502054802 | 32 | 316 | 0.0 | 0.0 | 0.00 | 0.18 | 0.00 | 88 | 1019.2 |
| 20260502054716 | 32 | 316 | 0.0 | 0.0 | 0.00 | 0.18 | 0.00 | 87 | 1019.2 |
| 20260502054607 | 32 | 316 | 0.0 | 0.0 | 0.00 | 0.18 | 0.00 | 87 | 1019.3 |
| 20260502054531 | 32 | 316 | 0.0 | 0.0 | 0.00 | 0.18 | 0.00 | 87 | 1019.3 |
| 20260502054402 | 32 | 316 | 0.0 | 0.0 | 0.00 | 0.18 | 0.00 | 87 | 1019.3 |
| 20260502054312 | 32 | 316 | 0.0 | 0.0 | 0.00 | 0.18 | 0.00 | 87 | 1019.2 |
| 20260502054224 | 33 | 316 | 0.0 | 0.0 | 0.00 | 0.18 | 0.00 | 87 | 1019.3 |
| 20260502054112 | 33 | 316 | 0.0 | 0.0 | 0.00 | 0.18 | 0.00 | 87 | 1019.3 |
| 20260502054003 | 33 | 316 | 0.0 | 0.0 | 0.00 | 0.18 | 0.00 | 87 | 1019.3 |
| 20260502053914 | 33 | 316 | 0.0 | 0.0 | 0.00 | 0.18 | 0.00 | 87 | 1019.3 |
| 20260502053825 | 33 | 316 | 0.0 | 0.0 | 0.00 | 0.18 | 0.00 | 87 | 1019.3 |
| 20260502053739 | 33 | 316 | 0.0 | 0.0 | 0.00 | 0.18 | 0.00 | 87 | 1019.3 |
| 20260502053649 | 33 | 316 | 0.0 | 0.0 | 0.00 | 0.18 | 0.00 | 87 | 1019.3 |
| 20260502053539 | 33 | 316 | 0.0 | 0.0 | 0.00 | 0.18 | 0.00 | 87 | 1019.3 |
| 20260502053409 | 33 | 316 | 0.0 | 0.0 | 0.00 | 0.18 | 0.00 | 87 | 1019.4 |
| 20260502053322 | 33 | 316 | 0.0 | 0.0 | 0.00 | 0.18 | 0.00 | 87 | 1019.4 |
| 20260502053210 | 33 | 316 | 0.0 | 0.0 | 0.00 | 0.18 | 0.00 | 87 | 1019.3 |
| 20260502053121 | 33 | 316 | 0.0 | 0.0 | 0.00 | 0.18 | 0.00 | 86 | 1019.4 |
| 20260502053044 | 33 | 316 | 0.0 | 0.0 | 0.00 | 0.18 | 0.00 | 86 | 1019.3 |
| 20260502052913 | 33 | 316 | 0.0 | 0.0 | 0.00 | 0.18 | 0.00 | 86 | 1019.3 |
| 20260502052824 | 33 | 316 | 0.0 | 0.0 | 0.00 | 0.18 | 0.00 | 86 | 1019.3 |
| 20260502052735 | 33 | 316 | 0.0 | 0.0 | 0.00 | 0.18 | 0.00 | 86 | 1019.3 |
| 20260502052610 | 33 | 316 | 0.0 | 0.0 | 0.00 | 0.18 | 0.00 | 86 | 1019.3 |
| 20260502052520 | 33 | 316 | 0.0 | 0.0 | 0.00 | 0.18 | 0.00 | 86 | 1019.3 |
| 20260502052411 | 33 | 316 | 0.0 | 0.0 | 0.00 | 0.18 | 0.00 | 86 | 1019.3 |
| 20260502052306 | 33 | 316 | 0.0 | 0.0 | 0.00 | 0.18 | 0.00 | 86 | 1019.4 |
| 20260502052214 | 33 | 316 | 0.0 | 0.0 | 0.00 | 0.18 | 0.00 | 86 | 1019.3 |
| 20260502052105 | 33 | 316 | 0.0 | 0.0 | 0.00 | 0.18 | 0.00 | 86 | 1019.3 |
| 20260502052016 | 33 | 316 | 0.0 | 0.0 | 0.00 | 0.18 | 0.00 | 86 | 1019.3 |
| 20260502051926 | 33 | 316 | 0.0 | 0.0 | 0.00 | 0.18 | 0.00 | 86 | 1019.3 |
| 20260502051815 | 33 | 316 | 0.0 | 0.0 | 0.00 | 0.18 | 0.00 | 86 | 1019.3 |
| 20260502051710 | 33 | 316 | 0.0 | 0.0 | 0.00 | 0.18 | 0.00 | 85 | 1019.3 |
| 20260502051622 | 33 | 316 | 0.0 | 0.0 | 0.00 | 0.18 | 0.00 | 85 | 1019.3 |
| 20260502051544 | 33 | 316 | 0.0 | 0.0 | 0.00 | 0.18 | 0.00 | 85 | 1019.3 |
| 20260502051413 | 33 | 316 | 0.0 | 0.0 | 0.00 | 0.18 | 0.00 | 85 | 1019.3 |
| 20260502051324 | 33 | 316 | 0.0 | 0.0 | 0.00 | 0.18 | 0.00 | 85 | 1019.3 |
| 20260502051236 | 33 | 316 | 0.0 | 0.0 | 0.00 | 0.18 | 0.00 | 85 | 1019.3 |
| 20260502051125 | 33 | 316 | 0.0 | 0.0 | 0.00 | 0.18 | 0.00 | 84 | 1019.4 |
| 20260502051036 | 33 | 316 | 0.0 | 0.0 | 0.00 | 0.18 | 0.00 | 84 | 1019.3 |
| 20260502050906 | 33 | 316 | 0.0 | 0.0 | 0.00 | 0.18 | 0.00 | 84 | 1019.4 |
| 20260502050816 | 33 | 316 | 0.0 | 0.0 | 0.00 | 0.18 | 0.00 | 84 | 1019.3 |
| 20260502050712 | 33 | 316 | 0.0 | 0.0 | 0.00 | 0.18 | 0.00 | 84 | 1019.3 |
| 20260502050603 | 33 | 316 | 0.0 | 0.0 | 0.00 | 0.18 | 0.00 | 84 | 1019.3 |
| 20260502050516 | 33 | 316 | 0.0 | 0.0 | 0.00 | 0.18 | 0.00 | 84 | 1019.4 |
| 20260502050407 | 33 | 316 | 0.0 | 0.0 | 0.00 | 0.18 | 0.00 | 84 | 1019.4 |
| 20260502050316 | 33 | 316 | 0.0 | 0.0 | 0.00 | 0.18 | 0.00 | 84 | 1019.4 |
| 20260502050206 | 33 | 316 | 0.0 | 0.0 | 0.00 | 0.33 | 0.00 | 83 | 1019.4 |
| 20260502050116 | 34 | 316 | 0.0 | 0.0 | 0.00 | 0.33 | 0.00 | 84 | 1019.4 |
| 20260502050032 | 34 | 316 | 0.0 | 0.0 | 0.00 | 0.33 | 0.00 | 84 | 1019.4 |
| 20260502045903 | 34 | 316 | 0.0 | 0.0 | 0.00 | 0.33 | 0.00 | 83 | 1019.4 |
| 20260502045819 | 34 | 316 | 0.0 | 0.0 | 0.00 | 0.33 | 0.00 | 83 | 1019.5 |
| 20260502045729 | 34 | 316 | 0.0 | 0.0 | 0.00 | 0.33 | 0.00 | 83 | 1019.4 |
| 20260502045620 | 34 | 316 | 0.0 | 0.0 | 0.00 | 0.33 | 0.00 | 83 | 1019.4 |
| 20260502045510 | 34 | 316 | 0.0 | 0.0 | 0.00 | 0.33 | 0.00 | 83 | 1019.4 |
| 20260502045401 | 34 | 316 | 0.0 | 0.0 | 0.00 | 0.33 | 0.00 | 83 | 1019.4 |
| 20260502045314 | 34 | 316 | 0.0 | 0.0 | 0.00 | 0.33 | 0.00 | 83 | 1019.4 |
| 20260502045204 | 34 | 316 | 0.0 | 0.0 | 0.00 | 0.33 | 0.00 | 83 | 1019.4 |
| 20260502045115 | 34 | 316 | 0.0 | 0.0 | 0.00 | 0.33 | 0.00 | 82 | 1019.3 |
| 20260502045007 | 34 | 316 | 0.0 | 0.0 | 0.00 | 0.33 | 0.00 | 82 | 1019.4 |
| 20260502044923 | 34 | 316 | 0.0 | 0.0 | 0.00 | 0.33 | 0.00 | 82 | 1019.3 |
| 20260502044833 | 34 | 316 | 0.0 | 0.0 | 0.00 | 0.33 | 0.00 | 82 | 1019.3 |
| 20260502044724 | 34 | 316 | 0.0 | 0.0 | 0.00 | 0.33 | 0.00 | 82 | 1019.3 |
| 20260502044614 | 34 | 316 | 0.0 | 0.0 | 0.00 | 0.33 | 0.00 | 82 | 1019.3 |
| 20260502044537 | 34 | 316 | 0.0 | 0.0 | 0.00 | 0.33 | 0.00 | 82 | 1019.3 |
| 20260502044406 | 35 | 316 | 0.0 | 0.0 | 0.00 | 0.33 | 0.00 | 81 | 1019.4 |
| 20260502044317 | 35 | 316 | 0.0 | 0.0 | 0.00 | 0.33 | 0.00 | 81 | 1019.4 |
| 20260502044227 | 35 | 316 | 0.0 | 0.0 | 0.00 | 0.33 | 0.00 | 81 | 1019.4 |
| 20260502044116 | 35 | 316 | 0.0 | 0.0 | 0.00 | 0.33 | 0.00 | 81 | 1019.4 |
| 20260502044007 | 35 | 316 | 0.0 | 0.0 | 0.00 | 0.33 | 0.00 | 81 | 1019.3 |
| 20260502043901 | 35 | 316 | 0.0 | 0.0 | 0.00 | 0.33 | 0.00 | 80 | 1019.5 |
| 20260502043812 | 35 | 316 | 0.0 | 0.0 | 0.00 | 0.33 | 0.00 | 80 | 1019.3 |
| 20260502043703 | 35 | 316 | 0.0 | 0.0 | 0.00 | 0.33 | 0.00 | 80 | 1019.4 |
| 20260502043614 | 35 | 316 | 0.0 | 0.0 | 0.00 | 0.33 | 0.00 | 80 | 1019.3 |
| 20260502043505 | 35 | 316 | 0.0 | 0.0 | 0.00 | 0.33 | 0.00 | 80 | 1019.3 |
| 20260502043413 | 35 | 316 | 0.0 | 0.0 | 0.00 | 0.33 | 0.00 | 79 | 1019.4 |
| 20260502043305 | 35 | 316 | 0.0 | 0.0 | 0.00 | 0.33 | 0.00 | 79 | 1019.4 |
| 20260502043215 | 35 | 316 | 0.0 | 0.0 | 0.00 | 0.33 | 0.00 | 79 | 1019.3 |
| 20260502043041 | 35 | 316 | 0.0 | 0.0 | 0.00 | 0.33 | 0.00 | 79 | 1019.3 |
| 20260502042931 | 36 | 316 | 0.0 | 1.0 | 0.00 | 0.33 | 0.00 | 79 | 1019.3 |
| 20260502042820 | 36 | 316 | 0.0 | 2.0 | 0.00 | 0.33 | 0.00 | 78 | 1019.3 |
| 20260502042710 | 36 | 316 | 0.0 | 2.0 | 0.00 | 0.33 | 0.00 | 78 | 1019.2 |
| 20260502042602 | 36 | 316 | 0.0 | 2.0 | 0.00 | 0.33 | 0.00 | 78 | 1019.2 |
| 20260502042514 | 36 | 316 | 0.0 | 2.0 | 0.00 | 0.33 | 0.00 | 78 | 1019.4 |
| 20260502042424 | 36 | 316 | 0.0 | 2.0 | 0.00 | 0.33 | 0.00 | 78 | 1019.3 |
| 20260502042314 | 36 | 316 | 0.0 | 2.0 | 0.00 | 0.33 | 0.00 | 78 | 1019.3 |
| 20260502042205 | 36 | 316 | 0.0 | 3.0 | 0.00 | 0.33 | 0.00 | 78 | 1019.3 |
| 20260502042115 | 36 | 316 | 1.0 | 3.0 | 0.00 | 0.33 | 0.00 | 78 | 1019.4 |
| 20260502042030 | 36 | 316 | 1.0 | 3.0 | 0.00 | 0.33 | 0.00 | 78 | 1019.3 |
| 20260502041940 | 36 | 316 | 1.0 | 3.0 | 0.00 | 0.33 | 0.00 | 78 | 1019.3 |
| 20260502041830 | 36 | 316 | 1.0 | 3.0 | 0.00 | 0.33 | 0.00 | 78 | 1019.3 |
| 20260502041740 | 36 | 316 | 1.0 | 3.0 | 0.00 | 0.33 | 0.00 | 78 | 1019.3 |
| 20260502041629 | 36 | 316 | 2.0 | 3.0 | 0.00 | 0.33 | 0.00 | 78 | 1019.3 |
| 20260502041552 | 36 | 316 | 2.0 | 3.0 | 0.00 | 0.33 | 0.00 | 79 | 1019.3 |
| 20260502041402 | 36 | 316 | 2.0 | 3.0 | 0.00 | 0.33 | 0.00 | 78 | 1019.3 |
| 20260502041312 | 36 | 316 | 1.0 | 3.0 | 0.00 | 0.33 | 0.00 | 78 | 1019.2 |
| 20260502041203 | 36 | 316 | 0.0 | 0.0 | 0.00 | 0.33 | 0.00 | 79 | 1019.2 |
| 20260502041113 | 36 | 316 | 0.0 | 0.0 | 0.00 | 0.33 | 0.00 | 79 | 1019.3 |
| 20260502041024 | 35 | 316 | 0.0 | 0.0 | 0.00 | 0.33 | 0.00 | 79 | 1019.2 |
| 20260502040918 | 36 | 316 | 0.0 | 0.0 | 0.00 | 0.33 | 0.00 | 79 | 1019.3 |
| 20260502040830 | 36 | 316 | 0.0 | 0.0 | 0.00 | 0.33 | 0.00 | 79 | 1019.3 |
| 20260502040740 | 36 | 316 | 0.0 | 0.0 | 0.00 | 0.33 | 0.00 | 78 | 1019.2 |
| 20260502040611 | 36 | 316 | 0.0 | 0.0 | 0.00 | 0.33 | 0.00 | 78 | 1019.2 |
| 20260502040521 | 36 | 316 | 0.0 | 0.0 | 0.00 | 0.33 | 0.00 | 78 | 1019.3 |
| 20260502040431 | 36 | 316 | 0.0 | 0.0 | 0.00 | 0.33 | 0.00 | 78 | 1019.2 |
| 20260502040323 | 36 | 316 | 0.0 | 0.0 | 0.00 | 0.33 | 0.00 | 78 | 1019.3 |
| 20260502040233 | 36 | 316 | 0.0 | 0.0 | 0.00 | 0.34 | 0.33 | 78 | 1019.2 |
| 20260502040140 | 36 | 316 | 0.0 | 0.0 | 0.00 | 0.34 | 0.33 | 78 | 1019.2 |
| 20260502040040 | 36 | 316 | 0.0 | 0.0 | 0.00 | 0.34 | 0.33 | 77 | 1019.3 |
| 20260502035912 | 36 | 316 | 0.0 | 0.0 | 0.00 | 0.34 | 0.33 | 77 | 1019.3 |
| 20260502035818 | 36 | 316 | 0.0 | 0.0 | 0.00 | 0.34 | 0.33 | 77 | 1019.2 |
| 20260502035709 | 36 | 316 | 0.0 | 0.0 | 0.00 | 0.34 | 0.33 | 77 | 1019.3 |
| 20260502035619 | 36 | 316 | 0.0 | 0.0 | 0.00 | 0.34 | 0.33 | 77 | 1019.3 |
| 20260502035509 | 36 | 316 | 0.0 | 0.0 | 0.00 | 0.34 | 0.33 | 77 | 1019.2 |
| 20260502035419 | 36 | 316 | 0.0 | 0.0 | 0.00 | 0.34 | 0.33 | 76 | 1019.3 |
| 20260502035330 | 36 | 316 | 0.0 | 0.0 | 0.00 | 0.34 | 0.33 | 76 | 1019.3 |
| 20260502035219 | 36 | 316 | 0.0 | 0.0 | 0.00 | 0.34 | 0.33 | 76 | 1019.2 |
| 20260502035130 | 36 | 316 | 0.0 | 0.0 | 0.00 | 0.34 | 0.33 | 76 | 1019.3 |
| 20260502035040 | 36 | 316 | 0.0 | 0.0 | 0.00 | 0.34 | 0.33 | 75 | 1019.2 |
| 20260502034930 | 36 | 316 | 0.0 | 0.0 | 0.00 | 0.34 | 0.33 | 75 | 1019.2 |
| 20260502034841 | 36 | 316 | 0.0 | 0.0 | 0.00 | 0.34 | 0.33 | 75 | 1019.2 |
| 20260502034755 | 36 | 316 | 0.0 | 0.0 | 0.00 | 0.34 | 0.33 | 75 | 1019.3 |
| 20260502034706 | 36 | 316 | 0.0 | 0.0 | 0.00 | 0.34 | 0.33 | 75 | 1019.3 |
| 20260502034607 | 36 | 316 | 0.0 | 0.0 | 0.00 | 0.34 | 0.33 | 75 | 1019.3 |
| 20260502034415 | 36 | 316 | 0.0 | 0.0 | 0.00 | 0.34 | 0.33 | 75 | 1019.3 |
| 20260502034326 | 36 | 316 | 0.0 | 0.0 | 0.00 | 0.34 | 0.33 | 75 | 1019.3 |
| 20260502034236 | 36 | 316 | 0.0 | 0.0 | 0.00 | 0.34 | 0.33 | 75 | 1019.3 |
| 20260502034125 | 36 | 316 | 0.0 | 0.0 | 0.00 | 0.34 | 0.33 | 74 | 1019.3 |
| 20260502034016 | 36 | 316 | 0.0 | 0.0 | 0.00 | 0.34 | 0.33 | 74 | 1019.3 |
| 20260502033905 | 36 | 316 | 0.0 | 0.0 | 0.00 | 0.34 | 0.33 | 74 | 1019.3 |
| 20260502033818 | 36 | 316 | 0.0 | 0.0 | 0.00 | 0.34 | 0.33 | 74 | 1019.3 |
| 20260502033708 | 36 | 316 | 0.0 | 0.0 | 0.00 | 0.34 | 0.33 | 74 | 1019.3 |
| 20260502033624 | 36 | 316 | 0.0 | 0.0 | 0.00 | 0.34 | 0.33 | 74 | 1019.2 |
| 20260502033514 | 36 | 316 | 0.0 | 0.0 | 0.00 | 0.34 | 0.33 | 74 | 1019.3 |
| 20260502033406 | 36 | 316 | 0.0 | 1.0 | 0.00 | 0.34 | 0.33 | 74 | 1019.2 |
| 20260502033318 | 37 | 316 | 0.0 | 2.0 | 0.00 | 0.34 | 0.33 | 74 | 1019.2 |
| 20260502033227 | 37 | 316 | 0.0 | 2.0 | 0.00 | 0.34 | 0.33 | 74 | 1019.2 |
| 20260502033117 | 37 | 316 | 0.0 | 2.0 | 0.00 | 0.34 | 0.33 | 74 | 1019.3 |
| 20260502033041 | 37 | 316 | 0.0 | 2.0 | 0.00 | 0.34 | 0.33 | 74 | 1019.3 |
| 20260502032911 | 37 | 316 | 0.0 | 2.0 | 0.00 | 0.34 | 0.33 | 74 | 1019.3 |
| 20260502032822 | 37 | 316 | 0.0 | 2.0 | 0.00 | 0.34 | 0.33 | 73 | 1019.2 |
| 20260502032713 | 37 | 316 | 0.0 | 2.0 | 0.00 | 0.34 | 0.33 | 73 | 1019.2 |
| 20260502032623 | 37 | 316 | 1.0 | 2.0 | 0.00 | 0.34 | 0.33 | 73 | 1019.3 |
| 20260502032538 | 37 | 316 | 1.0 | 2.0 | 0.00 | 0.34 | 0.33 | 73 | 1019.2 |
| 20260502032407 | 37 | 316 | 0.0 | 2.0 | 0.00 | 0.34 | 0.33 | 73 | 1019.1 |
| 20260502032317 | 37 | 316 | 0.0 | 2.0 | 0.00 | 0.34 | 0.33 | 73 | 1019.2 |
| 20260502032207 | 37 | 316 | 0.0 | 2.0 | 0.00 | 0.34 | 0.33 | 73 | 1019.2 |
| 20260502032119 | 37 | 316 | 0.0 | 2.0 | 0.00 | 0.34 | 0.33 | 73 | 1019.1 |
| 20260502032009 | 37 | 316 | 0.0 | 2.0 | 0.00 | 0.34 | 0.33 | 73 | 1019.2 |
| 20260502031921 | 37 | 316 | 0.0 | 2.0 | 0.00 | 0.34 | 0.33 | 73 | 1019.2 |
| 20260502031812 | 37 | 316 | 0.0 | 2.0 | 0.00 | 0.34 | 0.33 | 73 | 1019.1 |
| 20260502031707 | 37 | 316 | 0.0 | 3.0 | 0.00 | 0.34 | 0.33 | 73 | 1019.2 |
| 20260502031618 | 37 | 316 | 1.0 | 3.0 | 0.00 | 0.34 | 0.33 | 73 | 1019.0 |
| 20260502031542 | 37 | 316 | 1.0 | 3.0 | 0.00 | 0.34 | 0.33 | 73 | 1019.0 |
| 20260502031411 | 37 | 316 | 2.0 | 3.0 | 0.00 | 0.34 | 0.33 | 73 | 1019.1 |
| 20260502031303 | 37 | 316 | 2.0 | 3.0 | 0.00 | 0.34 | 0.33 | 73 | 1019.0 |
| 20260502031214 | 37 | 316 | 1.0 | 3.0 | 0.00 | 0.34 | 0.33 | 73 | 1019.1 |
| 20260502031105 | 37 | 316 | 1.0 | 3.0 | 0.00 | 0.34 | 0.33 | 73 | 1019.1 |
| 20260502031016 | 37 | 316 | 1.0 | 3.0 | 0.00 | 0.34 | 0.33 | 73 | 1019.0 |
| 20260502030928 | 37 | 321 | 1.0 | 2.0 | 0.00 | 0.34 | 0.33 | 73 | 1019.2 |
| 20260502030802 | 37 | 321 | 1.0 | 2.0 | 0.00 | 0.34 | 0.33 | 73 | 1019.0 |
| 20260502030712 | 37 | 321 | 1.0 | 2.0 | 0.00 | 0.34 | 0.33 | 73 | 1019.0 |
| 20260502030602 | 37 | 321 | 0.0 | 3.0 | 0.00 | 0.34 | 0.33 | 72 | 1019.0 |
| 20260502030512 | 37 | 321 | 0.0 | 3.0 | 0.00 | 0.34 | 0.33 | 73 | 1018.9 |
| 20260502030403 | 37 | 321 | 0.0 | 3.0 | 0.00 | 0.34 | 0.33 | 73 | 1019.0 |
| 20260502030315 | 37 | 321 | 0.0 | 3.0 | 0.00 | 0.34 | 0.33 | 72 | 1018.9 |
| 20260502030203 | 37 | 321 | 1.0 | 3.0 | 0.00 | 0.34 | 0.33 | 73 | 1018.9 |
| 20260502030113 | 37 | 321 | 1.0 | 3.0 | 0.00 | 0.34 | 0.33 | 72 | 1019.0 |
| 20260502030036 | 37 | 321 | 1.0 | 3.0 | 0.00 | 0.34 | 0.33 | 73 | 1019.0 |
| 20260502025910 | 37 | 321 | 1.0 | 3.0 | 0.00 | 0.34 | 0.33 | 72 | 1018.9 |
| 20260502025819 | 37 | 321 | 1.0 | 3.0 | 0.00 | 0.34 | 0.33 | 73 | 1019.0 |
| 20260502025711 | 37 | 321 | 1.0 | 3.0 | 0.00 | 0.34 | 0.33 | 73 | 1018.9 |
| 20260502025603 | 37 | 321 | 1.0 | 3.0 | 0.00 | 0.34 | 0.33 | 72 | 1019.0 |
| 20260502025514 | 37 | 321 | 1.0 | 3.0 | 0.00 | 0.34 | 0.33 | 72 | 1018.9 |
| 20260502025404 | 37 | 321 | 0.0 | 2.0 | 0.00 | 0.34 | 0.33 | 72 | 1019.0 |
| 20260502025314 | 37 | 321 | 0.0 | 2.0 | 0.00 | 0.34 | 0.33 | 73 | 1018.9 |
| 20260502025206 | 37 | 321 | 0.0 | 2.0 | 0.00 | 0.34 | 0.33 | 73 | 1019.0 |
| 20260502025115 | 37 | 321 | 0.0 | 2.0 | 0.00 | 0.34 | 0.33 | 72 | 1018.9 |
| 20260502025011 | 37 | 321 | 0.0 | 2.0 | 0.00 | 0.34 | 0.33 | 72 | 1018.9 |
| 20260502024923 | 37 | 321 | 0.0 | 2.0 | 0.00 | 0.34 | 0.33 | 72 | 1018.9 |
| 20260502024833 | 37 | 321 | 1.0 | 2.0 | 0.00 | 0.34 | 0.33 | 72 | 1018.9 |
| 20260502024741 | 37 | 321 | 1.0 | 2.0 | 0.00 | 0.34 | 0.33 | 73 | 1018.9 |
| 20260502024642 | 37 | 321 | 1.0 | 2.0 | 0.00 | 0.34 | 0.33 | 72 | 1018.9 |
| 20260502024523 | 37 | 321 | 1.0 | 2.0 | 0.00 | 0.34 | 0.33 | 72 | 1018.9 |
| 20260502024414 | 37 | 321 | 1.0 | 2.0 | 0.00 | 0.34 | 0.33 | 72 | 1018.9 |
| 20260502024306 | 37 | 321 | 1.0 | 2.0 | 0.00 | 0.34 | 0.33 | 72 | 1018.9 |
| 20260502024218 | 37 | 321 | 1.0 | 2.0 | 0.00 | 0.34 | 0.33 | 72 | 1018.8 |
| 20260502024109 | 37 | 321 | 1.0 | 3.0 | 0.00 | 0.34 | 0.33 | 72 | 1018.8 |
| 20260502024024 | 37 | 321 | 1.0 | 3.0 | 0.00 | 0.34 | 0.33 | 72 | 1018.8 |
| 20260502023935 | 37 | 321 | 0.0 | 3.0 | 0.00 | 0.34 | 0.33 | 72 | 1018.8 |
| 20260502023806 | 37 | 321 | 0.0 | 3.0 | 0.00 | 0.34 | 0.33 | 72 | 1018.8 |
| 20260502023716 | 37 | 321 | 1.0 | 3.0 | 0.00 | 0.34 | 0.33 | 72 | 1018.8 |
| 20260502023605 | 37 | 321 | 1.0 | 3.0 | 0.00 | 0.34 | 0.33 | 72 | 1018.8 |
| 20260502023517 | 37 | 321 | 1.0 | 3.0 | 0.00 | 0.34 | 0.33 | 73 | 1018.9 |
| 20260502023407 | 37 | 321 | 1.0 | 3.0 | 0.00 | 0.34 | 0.33 | 73 | 1018.9 |
| 20260502023316 | 37 | 321 | 1.0 | 3.0 | 0.00 | 0.34 | 0.33 | 72 | 1018.8 |
| 20260502023206 | 37 | 321 | 1.0 | 3.0 | 0.00 | 0.34 | 0.33 | 72 | 1018.9 |
| 20260502023122 | 37 | 321 | 1.0 | 3.0 | 0.00 | 0.34 | 0.33 | 72 | 1018.9 |
| 20260502023040 | 37 | 321 | 1.0 | 3.0 | 0.00 | 0.34 | 0.33 | 72 | 1018.9 |
| 20260502022909 | 37 | 321 | 1.0 | 3.0 | 0.00 | 0.34 | 0.33 | 72 | 1018.8 |
| 20260502022819 | 37 | 321 | 1.0 | 3.0 | 0.00 | 0.34 | 0.33 | 72 | 1018.9 |
| 20260502022729 | 37 | 321 | 1.0 | 3.0 | 0.00 | 0.34 | 0.33 | 72 | 1018.9 |
| 20260502022640 | 37 | 321 | 1.0 | 3.0 | 0.00 | 0.34 | 0.33 | 72 | 1018.9 |
| 20260502022510 | 37 | 321 | 1.0 | 3.0 | 0.00 | 0.34 | 0.33 | 72 | 1018.9 |
| 20260502022401 | 37 | 321 | 2.0 | 3.0 | 0.00 | 0.34 | 0.33 | 72 | 1018.9 |
| 20260502022312 | 37 | 321 | 2.0 | 3.0 | 0.00 | 0.34 | 0.33 | 72 | 1018.9 |
| 20260502022207 | 37 | 321 | 2.0 | 3.0 | 0.00 | 0.34 | 0.33 | 72 | 1018.9 |
| 20260502022118 | 37 | 321 | 2.0 | 3.0 | 0.00 | 0.34 | 0.33 | 72 | 1018.9 |
| 20260502022007 | 37 | 321 | 1.0 | 3.0 | 0.00 | 0.34 | 0.33 | 72 | 1018.9 |
| 20260502021918 | 37 | 321 | 2.0 | 3.0 | 0.00 | 0.34 | 0.33 | 72 | 1019.0 |
| 20260502021809 | 37 | 321 | 1.0 | 3.0 | 0.00 | 0.34 | 0.33 | 72 | 1018.9 |
| 20260502021719 | 37 | 321 | 1.0 | 3.0 | 0.00 | 0.34 | 0.33 | 72 | 1018.8 |
| 20260502021611 | 38 | 321 | 2.0 | 3.0 | 0.00 | 0.34 | 0.33 | 72 | 1018.8 |
| 20260502021533 | 38 | 321 | 2.0 | 2.0 | 0.00 | 0.34 | 0.33 | 72 | 1018.8 |
| 20260502021403 | 38 | 321 | 1.0 | 2.0 | 0.00 | 0.34 | 0.33 | 73 | 1018.9 |
| 20260502021318 | 38 | 321 | 1.0 | 2.0 | 0.00 | 0.34 | 0.33 | 73 | 1018.8 |
| 20260502021228 | 38 | 321 | 1.0 | 2.0 | 0.00 | 0.34 | 0.33 | 73 | 1018.7 |
| 20260502021117 | 38 | 321 | 1.0 | 2.0 | 0.00 | 0.34 | 0.33 | 73 | 1018.7 |
| 20260502021028 | 38 | 321 | 1.0 | 3.0 | 0.00 | 0.34 | 0.33 | 73 | 1018.7 |
| 20260502020939 | 38 | 321 | 1.0 | 3.0 | 0.00 | 0.34 | 0.33 | 73 | 1018.7 |
| 20260502020809 | 38 | 321 | 0.0 | 3.0 | 0.00 | 0.34 | 0.33 | 73 | 1018.7 |
| 20260502020719 | 38 | 321 | 1.0 | 3.0 | 0.00 | 0.34 | 0.33 | 73 | 1018.6 |
| 20260502020630 | 38 | 321 | 1.0 | 3.0 | 0.00 | 0.34 | 0.33 | 73 | 1018.7 |
| 20260502020501 | 38 | 321 | 1.0 | 3.0 | 0.00 | 0.34 | 0.33 | 73 | 1018.6 |
| 20260502020412 | 38 | 321 | 1.0 | 3.0 | 0.00 | 0.34 | 0.33 | 74 | 1018.7 |
| 20260502020309 | 38 | 321 | 1.0 | 3.0 | 0.00 | 0.34 | 0.33 | 74 | 1018.7 |
| 20260502020217 | 38 | 321 | 1.0 | 3.0 | 0.00 | 0.34 | 0.33 | 74 | 1018.7 |
| 20260502020129 | 38 | 321 | 1.0 | 3.0 | 0.00 | 0.34 | 0.33 | 74 | 1018.7 |
| 20260502020051 | 38 | 321 | 1.0 | 3.0 | 0.00 | 0.34 | 0.33 | 74 | 1018.7 |
| 20260502015942 | 38 | 321 | 1.0 | 3.0 | 0.00 | 0.34 | 0.33 | 74 | 1018.6 |
| 20260502015812 | 38 | 321 | 0.0 | 3.0 | 0.00 | 0.34 | 0.33 | 74 | 1018.6 |
| 20260502015702 | 38 | 321 | 1.0 | 3.0 | 0.00 | 0.34 | 0.33 | 74 | 1018.6 |
| 20260502015613 | 38 | 321 | 1.0 | 3.0 | 0.00 | 0.34 | 0.33 | 75 | 1018.6 |
| 20260502015504 | 38 | 321 | 1.0 | 3.0 | 0.00 | 0.34 | 0.33 | 75 | 1018.6 |
| 20260502015414 | 38 | 321 | 1.0 | 3.0 | 0.00 | 0.34 | 0.33 | 75 | 1018.6 |
| 20260502015328 | 38 | 321 | 0.0 | 2.0 | 0.00 | 0.34 | 0.33 | 75 | 1018.6 |
| 20260502015218 | 38 | 321 | 0.0 | 2.0 | 0.00 | 0.34 | 0.33 | 75 | 1018.6 |
| 20260502015109 | 38 | 321 | 1.0 | 2.0 | 0.00 | 0.34 | 0.33 | 75 | 1018.5 |
| 20260502015020 | 38 | 321 | 1.0 | 2.0 | 0.00 | 0.34 | 0.33 | 75 | 1018.5 |
| 20260502014931 | 38 | 321 | 1.0 | 2.0 | 0.00 | 0.34 | 0.33 | 75 | 1018.5 |
| 20260502014842 | 38 | 321 | 1.0 | 2.0 | 0.00 | 0.34 | 0.33 | 75 | 1018.5 |
| 20260502014733 | 38 | 321 | 0.0 | 2.0 | 0.00 | 0.34 | 0.33 | 75 | 1018.5 |
| 20260502014603 | 38 | 321 | 0.0 | 2.0 | 0.00 | 0.34 | 0.33 | 75 | 1018.5 |
| 20260502014526 | 38 | 321 | 0.0 | 4.0 | 0.00 | 0.34 | 0.33 | 75 | 1018.5 |
| 20260502014416 | 38 | 321 | 1.0 | 4.0 | 0.00 | 0.34 | 0.33 | 75 | 1018.5 |
| 20260502014310 | 38 | 321 | 1.0 | 4.0 | 0.00 | 0.34 | 0.33 | 75 | 1018.5 |
| 20260502014202 | 38 | 321 | 0.0 | 4.0 | 0.00 | 0.34 | 0.33 | 75 | 1018.5 |
| 20260502014114 | 38 | 321 | 1.0 | 4.0 | 0.00 | 0.34 | 0.33 | 75 | 1018.5 |
| 20260502014023 | 38 | 321 | 1.0 | 4.0 | 0.00 | 0.34 | 0.33 | 75 | 1018.6 |
| 20260502013915 | 38 | 321 | 1.0 | 4.0 | 0.00 | 0.34 | 0.33 | 74 | 1018.6 |
| 20260502013825 | 38 | 321 | 1.0 | 4.0 | 0.00 | 0.34 | 0.33 | 74 | 1018.7 |
| 20260502013736 | 38 | 321 | 2.0 | 4.0 | 0.00 | 0.34 | 0.33 | 74 | 1018.6 |
| 20260502013605 | 38 | 295 | 1.0 | 3.0 | 0.00 | 0.34 | 0.33 | 74 | 1018.6 |
| 20260502013516 | 38 | 295 | 1.0 | 3.0 | 0.00 | 0.34 | 0.33 | 74 | 1018.6 |
| 20260502013406 | 38 | 295 | 0.0 | 3.0 | 0.00 | 0.34 | 0.33 | 74 | 1018.5 |
| 20260502013322 | 38 | 295 | 0.0 | 4.0 | 0.00 | 0.34 | 0.33 | 74 | 1018.5 |
| 20260502013210 | 38 | 295 | 1.0 | 4.0 | 0.00 | 0.34 | 0.33 | 74 | 1018.6 |
| 20260502013120 | 38 | 295 | 1.0 | 4.0 | 0.00 | 0.34 | 0.33 | 73 | 1018.4 |
| 20260502013041 | 38 | 295 | 2.0 | 4.0 | 0.00 | 0.34 | 0.33 | 73 | 1018.4 |
| 20260502012910 | 38 | 295 | 1.0 | 4.0 | 0.00 | 0.34 | 0.33 | 73 | 1018.4 |
| 20260502012822 | 38 | 332 | 1.0 | 4.0 | 0.00 | 0.34 | 0.33 | 73 | 1018.5 |
| 20260502012733 | 38 | 332 | 1.0 | 4.0 | 0.00 | 0.34 | 0.33 | 73 | 1018.5 |
| 20260502012623 | 38 | 332 | 2.0 | 4.0 | 0.00 | 0.34 | 0.33 | 73 | 1018.4 |
| 20260502012513 | 38 | 332 | 2.0 | 4.0 | 0.00 | 0.34 | 0.33 | 73 | 1018.3 |
| 20260502012403 | 38 | 303 | 1.0 | 4.0 | 0.00 | 0.34 | 0.33 | 73 | 1018.4 |
| 20260502012317 | 38 | 338 | 1.0 | 4.0 | 0.00 | 0.34 | 0.33 | 73 | 1018.3 |
| 20260502012208 | 38 | 338 | 1.0 | 5.0 | 0.00 | 0.34 | 0.33 | 73 | 1018.4 |
| 20260502012119 | 38 | 344 | 2.0 | 5.0 | 0.00 | 0.34 | 0.33 | 73 | 1018.5 |
| 20260502012010 | 38 | 318 | 2.0 | 5.0 | 0.00 | 0.34 | 0.33 | 73 | 1018.4 |
| 20260502011921 | 38 | 324 | 1.0 | 5.0 | 0.00 | 0.34 | 0.33 | 73 | 1018.4 |
| 20260502011831 | 38 | 324 | 2.0 | 8.0 | 0.00 | 0.34 | 0.33 | 73 | 1018.4 |
| 20260502011743 | 39 | 343 | 2.0 | 8.0 | 0.00 | 0.34 | 0.33 | 73 | 1018.3 |
| 20260502011633 | 39 | 5 | 2.0 | 8.0 | 0.00 | 0.34 | 0.33 | 73 | 1018.3 |
| 20260502011555 | 39 | 323 | 3.0 | 8.0 | 0.00 | 0.34 | 0.33 | 73 | 1018.2 |
| 20260502011425 | 39 | 327 | 2.0 | 8.0 | 0.00 | 0.34 | 0.33 | 73 | 1018.3 |
| 20260502011336 | 39 | 293 | 1.0 | 8.0 | 0.00 | 0.34 | 0.33 | 73 | 1018.3 |
| 20260502011252 | 39 | 321 | 2.0 | 8.0 | 0.00 | 0.34 | 0.33 | 72 | 1018.2 |
| 20260502011142 | 39 | 321 | 3.0 | 8.0 | 0.00 | 0.34 | 0.33 | 72 | 1018.2 |
| 20260502011011 | 39 | 346 | 3.0 | 8.0 | 0.00 | 0.34 | 0.33 | 72 | 1018.2 |
| 20260502010902 | 39 | 321 | 2.0 | 8.0 | 0.00 | 0.34 | 0.33 | 72 | 1018.3 |
| 20260502010812 | 39 | 329 | 3.0 | 8.0 | 0.00 | 0.34 | 0.33 | 72 | 1018.2 |
| 20260502010724 | 39 | 321 | 3.0 | 8.0 | 0.00 | 0.34 | 0.33 | 71 | 1018.1 |
| 20260502010635 | 39 | 329 | 2.0 | 8.0 | 0.00 | 0.34 | 0.33 | 72 | 1018.1 |
| 20260502010503 | 39 | 21 | 1.0 | 4.0 | 0.00 | 0.34 | 0.33 | 71 | 1018.2 |
| 20260502010415 | 39 | 304 | 2.0 | 6.0 | 0.00 | 0.34 | 0.33 | 71 | 1018.2 |
| 20260502010327 | 39 | 304 | 2.0 | 8.0 | 0.00 | 0.34 | 0.33 | 71 | 1018.2 |
| 20260502010240 | 39 | 314 | 1.0 | 8.0 | 0.00 | 0.34 | 0.33 | 71 | 1018.1 |
| 20260502010131 | 39 | 307 | 1.0 | 8.0 | 0.00 | 0.34 | 0.33 | 70 | 1018.2 |
| 20260502010053 | 39 | 335 | 1.0 | 8.0 | 0.00 | 0.34 | 0.33 | 70 | 1018.1 |
| 20260502005922 | 39 | 335 | 2.0 | 8.0 | 0.00 | 0.34 | 0.33 | 70 | 1018.1 |
| 20260502005834 | 39 | 306 | 2.0 | 8.0 | 0.00 | 0.34 | 0.33 | 70 | 1018.1 |
| 20260502005705 | 39 | 326 | 3.0 | 8.0 | 0.00 | 0.34 | 0.33 | 69 | 1018.1 |
| 20260502005615 | 39 | 317 | 4.0 | 8.0 | 0.00 | 0.34 | 0.33 | 69 | 1018.1 |
| 20260502005506 | 39 | 320 | 3.0 | 8.0 | 0.00 | 0.34 | 0.33 | 69 | 1018.0 |
| 20260502005418 | 39 | 360 | 3.0 | 8.0 | 0.00 | 0.34 | 0.33 | 69 | 1018.1 |
| 20260502005308 | 39 | 319 | 3.0 | 8.0 | 0.00 | 0.34 | 0.33 | 69 | 1018.1 |
| 20260502005201 | 40 | 290 | 3.0 | 8.0 | 0.00 | 0.34 | 0.33 | 69 | 1018.0 |
| 20260502005113 | 40 | 314 | 2.0 | 8.0 | 0.00 | 0.34 | 0.33 | 68 | 1018.1 |
| 20260502005003 | 40 | 318 | 3.0 | 8.0 | 0.00 | 0.34 | 0.33 | 68 | 1018.1 |
| 20260502004915 | 40 | 324 | 3.0 | 8.0 | 0.00 | 0.34 | 0.33 | 68 | 1018.1 |
| 20260502004805 | 40 | 314 | 4.0 | 8.0 | 0.00 | 0.34 | 0.33 | 68 | 1018.1 |
| 20260502004716 | 40 | 294 | 4.0 | 8.0 | 0.00 | 0.34 | 0.33 | 68 | 1018.1 |
| 20260502004626 | 40 | 350 | 3.0 | 9.0 | 0.00 | 0.34 | 0.33 | 67 | 1018.1 |
| 20260502004547 | 40 | 346 | 3.0 | 10.0 | 0.00 | 0.34 | 0.33 | 67 | 1018.1 |
| 20260502004436 | 40 | 318 | 4.0 | 10.0 | 0.00 | 0.34 | 0.33 | 67 | 1017.9 |
| 20260502004311 | 40 | 321 | 3.0 | 10.0 | 0.00 | 0.34 | 0.33 | 67 | 1018.0 |
| 20260502004222 | 40 | 316 | 3.0 | 10.0 | 0.00 | 0.34 | 0.33 | 67 | 1018.1 |
| 20260502004133 | 40 | 307 | 3.0 | 10.0 | 0.00 | 0.34 | 0.33 | 67 | 1018.0 |
| 20260502004004 | 40 | 312 | 4.0 | 10.0 | 0.00 | 0.34 | 0.33 | 66 | 1018.0 |
| 20260502003915 | 40 | 328 | 5.0 | 10.0 | 0.00 | 0.34 | 0.33 | 66 | 1018.0 |
| 20260502003806 | 40 | 321 | 5.0 | 10.0 | 0.00 | 0.34 | 0.33 | 65 | 1018.0 |
| 20260502003718 | 40 | 339 | 5.0 | 10.0 | 0.00 | 0.34 | 0.33 | 66 | 1018.1 |
| 20260502003628 | 40 | 321 | 4.0 | 8.0 | 0.00 | 0.34 | 0.33 | 65 | 1018.1 |
| 20260502003539 | 40 | 316 | 5.0 | 8.0 | 0.00 | 0.34 | 0.33 | 66 | 1018.0 |
| 20260502003407 | 40 | 360 | 4.0 | 8.0 | 0.00 | 0.34 | 0.33 | 65 | 1018.0 |
| 20260502003304 | 40 | 334 | 3.0 | 8.0 | 0.00 | 0.34 | 0.33 | 65 | 1018.1 |
| 20260502003213 | 40 | 5 | 3.0 | 8.0 | 0.00 | 0.34 | 0.33 | 66 | 1018.0 |
| 20260502003105 | 40 | 355 | 2.0 | 6.0 | 0.00 | 0.34 | 0.33 | 65 | 1018.0 |
| 20260502003027 | 40 | 309 | 3.0 | 6.0 | 0.00 | 0.34 | 0.33 | 65 | 1018.1 |
| 20260502002918 | 40 | 309 | 3.0 | 6.0 | 0.00 | 0.34 | 0.33 | 64 | 1018.1 |
| 20260502002808 | 40 | 313 | 3.0 | 6.0 | 0.00 | 0.34 | 0.33 | 64 | 1018.1 |
| 20260502002720 | 40 | 321 | 3.0 | 6.0 | 0.00 | 0.34 | 0.33 | 64 | 1018.0 |
| 20260502002609 | 40 | 284 | 3.0 | 6.0 | 0.00 | 0.34 | 0.33 | 64 | 1018.1 |
| 20260502002521 | 41 | 298 | 3.0 | 6.0 | 0.00 | 0.34 | 0.33 | 64 | 1018.0 |
| 20260502002431 | 40 | 326 | 3.0 | 6.0 | 0.00 | 0.34 | 0.33 | 63 | 1018.1 |
| 20260502002306 | 41 | 321 | 3.0 | 6.0 | 0.00 | 0.34 | 0.33 | 63 | 1018.1 |
| 20260502002218 | 41 | 324 | 3.0 | 6.0 | 0.00 | 0.34 | 0.33 | 64 | 1018.1 |
| 20260502002107 | 41 | 317 | 1.0 | 6.0 | 0.00 | 0.34 | 0.33 | 64 | 1018.1 |
| 20260502002020 | 41 | 325 | 1.0 | 6.0 | 0.00 | 0.34 | 0.33 | 64 | 1018.0 |
| 20260502001911 | 41 | 325 | 1.0 | 6.0 | 0.00 | 0.34 | 0.33 | 63 | 1018.0 |
| 20260502001802 | 41 | 325 | 1.0 | 6.0 | 0.00 | 0.34 | 0.33 | 63 | 1018.0 |
| 20260502001714 | 41 | 325 | 1.0 | 8.0 | 0.00 | 0.34 | 0.33 | 63 | 1018.1 |
| 20260502001605 | 41 | 315 | 2.0 | 8.0 | 0.00 | 0.34 | 0.33 | 62 | 1018.1 |
| 20260502001531 | 41 | 316 | 2.0 | 8.0 | 0.00 | 0.34 | 0.33 | 62 | 1018.1 |
| 20260502001420 | 41 | 336 | 2.0 | 10.0 | 0.00 | 0.34 | 0.33 | 62 | 1018.0 |
| 20260502001330 | 41 | 329 | 3.0 | 12.0 | 0.00 | 0.34 | 0.33 | 61 | 1018.0 |
| 20260502001220 | 41 | 318 | 3.0 | 12.0 | 0.00 | 0.34 | 0.33 | 61 | 1018.0 |
| 20260502001131 | 41 | 5 | 2.0 | 12.0 | 0.00 | 0.34 | 0.33 | 62 | 1018.1 |
| 20260502001042 | 41 | 323 | 3.0 | 12.0 | 0.00 | 0.34 | 0.33 | 61 | 1018.1 |
| 20260502000932 | 41 | 329 | 4.0 | 12.0 | 0.00 | 0.34 | 0.33 | 61 | 1018.0 |
| 20260502000802 | 41 | 355 | 4.0 | 12.0 | 0.00 | 0.34 | 0.33 | 60 | 1018.1 |
| 20260502000713 | 41 | 351 | 4.0 | 12.0 | 0.00 | 0.34 | 0.33 | 60 | 1018.0 |
| 20260502000624 | 41 | 329 | 7.0 | 12.0 | 0.00 | 0.34 | 0.33 | 60 | 1018.0 |
| 20260502000535 | 41 | 299 | 7.0 | 12.0 | 0.00 | 0.34 | 0.33 | 59 | 1018.0 |
| 20260502000409 | 41 | 303 | 5.0 | 10.0 | 0.00 | 0.34 | 0.33 | 60 | 1018.0 |
| 20260502000321 | 41 | 299 | 4.0 | 10.0 | 0.00 | 0.34 | 0.33 | 59 | 1018.0 |
| 20260502000229 | 41 | 322 | 4.0 | 10.0 | 0.00 | 0.34 | 0.33 | 59 | 1018.0 |
| 20260502000119 | 41 | 296 | 4.0 | 10.0 | 0.00 | 0.34 | 0.33 | 60 | 1018.0 |
| 20260502000041 | 41 | 336 | 5.0 | 10.0 | 0.00 | 0.34 | 0.33 | 59 | 1018.0 |
| 20260501235910 | 41 | 327 | 3.0 | 10.0 | 0.00 | 0.34 | 0.33 | 60 | 1017.9 |
| 20260501235820 | 41 | 331 | 3.0 | 10.0 | 0.00 | 0.34 | 0.33 | 59 | 1018.0 |
| 20260501235731 | 41 | 324 | 4.0 | 10.0 | 0.00 | 0.34 | 0.33 | 59 | 1018.0 |
| 20260501235643 | 41 | 299 | 5.0 | 10.0 | 0.00 | 0.34 | 0.33 | 59 | 1017.9 |
| 20260501235532 | 41 | 343 | 4.0 | 10.0 | 0.00 | 0.34 | 0.33 | 59 | 1017.9 |
| 20260501235421 | 41 | 290 | 4.0 | 11.0 | 0.00 | 0.34 | 0.33 | 60 | 1017.8 |
| 20260501235316 | 41 | 320 | 5.0 | 11.0 | 0.00 | 0.34 | 0.33 | 59 | 1017.9 |
| 20260501235205 | 41 | 302 | 6.0 | 11.0 | 0.00 | 0.34 | 0.33 | 59 | 1017.9 |
| 20260501235117 | 41 | 316 | 5.0 | 11.0 | 0.00 | 0.34 | 0.33 | 59 | 1017.9 |
| 20260501235007 | 41 | 326 | 3.0 | 11.0 | 0.00 | 0.34 | 0.33 | 60 | 1017.9 |
| 20260501234918 | 41 | 323 | 3.0 | 11.0 | 0.00 | 0.34 | 0.33 | 60 | 1017.9 |
| 20260501234827 | 41 | 323 | 4.0 | 11.0 | 0.00 | 0.34 | 0.33 | 60 | 1017.9 |
| 20260501234738 | 41 | 342 | 5.0 | 11.0 | 0.00 | 0.34 | 0.33 | 59 | 1018.0 |
| 20260501234607 | 41 | 324 | 4.0 | 10.0 | 0.00 | 0.34 | 0.33 | 59 | 1017.9 |
| 20260501234531 | 41 | 312 | 4.0 | 10.0 | 0.00 | 0.34 | 0.33 | 59 | 1017.9 |
| 20260501234404 | 41 | 14 | 5.0 | 11.0 | 0.00 | 0.34 | 0.33 | 58 | 1017.9 |
| 20260501234314 | 41 | 300 | 5.0 | 11.0 | 0.00 | 0.34 | 0.33 | 59 | 1017.8 |
| 20260501234205 | 41 | 316 | 5.0 | 11.0 | 0.00 | 0.34 | 0.33 | 60 | 1017.9 |
| 20260501234117 | 41 | 319 | 5.0 | 13.0 | 0.00 | 0.34 | 0.33 | 59 | 1017.9 |
| 20260501234007 | 41 | 318 | 6.0 | 13.0 | 0.00 | 0.34 | 0.33 | 60 | 1017.9 |
| 20260501233919 | 42 | 325 | 5.0 | 13.0 | 0.00 | 0.34 | 0.33 | 60 | 1017.9 |
| 20260501233810 | 42 | 317 | 6.0 | 13.0 | 0.00 | 0.34 | 0.33 | 60 | 1017.9 |
| 20260501233720 | 42 | 335 | 6.0 | 13.0 | 0.00 | 0.34 | 0.33 | 59 | 1017.9 |
| 20260501233610 | 42 | 341 | 7.0 | 13.0 | 0.00 | 0.34 | 0.33 | 60 | 1018.0 |
| 20260501233524 | 42 | 296 | 8.0 | 13.0 | 0.00 | 0.34 | 0.33 | 59 | 1018.0 |
| 20260501233415 | 42 | 325 | 8.0 | 13.0 | 0.00 | 0.34 | 0.33 | 59 | 1017.9 |
| 20260501233307 | 42 | 291 | 7.0 | 10.0 | 0.00 | 0.34 | 0.33 | 60 | 1017.9 |
| 20260501233216 | 42 | 348 | 8.0 | 10.0 | 0.00 | 0.34 | 0.33 | 60 | 1017.9 |
| 20260501233107 | 42 | 308 | 5.0 | 10.0 | 0.00 | 0.34 | 0.33 | 61 | 1017.9 |
| 20260501233030 | 42 | 331 | 5.0 | 10.0 | 0.00 | 0.34 | 0.33 | 62 | 1017.9 |
| 20260501232920 | 42 | 340 | 6.0 | 9.0 | 0.00 | 0.34 | 0.33 | 61 | 1017.9 |
| 20260501232811 | 42 | 311 | 6.0 | 11.0 | 0.00 | 0.34 | 0.33 | 61 | 1017.9 |
| 20260501232702 | 42 | 293 | 5.0 | 11.0 | 0.00 | 0.34 | 0.33 | 62 | 1018.0 |
| 20260501232612 | 42 | 317 | 5.0 | 11.0 | 0.00 | 0.34 | 0.33 | 62 | 1017.8 |
| 20260501232526 | 42 | 319 | 5.0 | 11.0 | 0.00 | 0.34 | 0.33 | 63 | 1017.8 |
| 20260501232415 | 42 | 317 | 5.0 | 11.0 | 0.00 | 0.34 | 0.33 | 61 | 1017.8 |
| 20260501232306 | 42 | 306 | 6.0 | 11.0 | 0.00 | 0.34 | 0.33 | 62 | 1017.8 |
| 20260501232217 | 43 | 336 | 6.0 | 11.0 | 0.00 | 0.34 | 0.33 | 61 | 1017.7 |
| 20260501232108 | 43 | 319 | 7.0 | 11.0 | 0.00 | 0.34 | 0.33 | 62 | 1017.8 |
| 20260501232018 | 43 | 345 | 6.0 | 11.0 | 0.00 | 0.34 | 0.33 | 62 | 1017.9 |
| 20260501231929 | 43 | 351 | 7.0 | 11.0 | 0.00 | 0.34 | 0.33 | 62 | 1017.8 |
| 20260501231820 | 43 | 317 | 8.0 | 11.0 | 0.00 | 0.34 | 0.33 | 61 | 1017.7 |
| 20260501231710 | 43 | 355 | 7.0 | 11.0 | 0.00 | 0.34 | 0.33 | 62 | 1017.8 |
| 20260501231605 | 43 | 10 | 7.0 | 11.0 | 0.00 | 0.34 | 0.33 | 61 | 1017.8 |
| 20260501231527 | 43 | 355 | 7.0 | 13.0 | 0.00 | 0.34 | 0.33 | 61 | 1017.7 |
| 20260501231417 | 43 | 346 | 6.0 | 13.0 | 0.00 | 0.34 | 0.33 | 62 | 1017.7 |
| 20260501231308 | 43 | 22 | 5.0 | 13.0 | 0.00 | 0.34 | 0.33 | 62 | 1017.7 |
| 20260501231218 | 43 | 306 | 5.0 | 13.0 | 0.00 | 0.34 | 0.33 | 62 | 1017.7 |
| 20260501231108 | 43 | 312 | 6.0 | 13.0 | 0.00 | 0.34 | 0.33 | 62 | 1017.8 |
| 20260501231020 | 43 | 338 | 8.0 | 13.0 | 0.00 | 0.34 | 0.33 | 61 | 1017.8 |
| 20260501230910 | 43 | 287 | 8.0 | 13.0 | 0.00 | 0.34 | 0.33 | 62 | 1017.8 |
| 20260501230820 | 43 | 313 | 8.0 | 13.0 | 0.00 | 0.34 | 0.33 | 63 | 1017.8 |
| 20260501230714 | 43 | 299 | 7.0 | 13.0 | 0.00 | 0.34 | 0.33 | 63 | 1017.8 |
| 20260501230604 | 43 | 270 | 6.0 | 10.0 | 0.00 | 0.34 | 0.33 | 63 | 1017.8 |
| 20260501230516 | 43 | 355 | 6.0 | 10.0 | 0.00 | 0.34 | 0.33 | 64 | 1017.9 |
| 20260501230407 | 43 | 334 | 7.0 | 10.0 | 0.00 | 0.34 | 0.33 | 63 | 1017.8 |
| 20260501230322 | 43 | 323 | 7.0 | 10.0 | 0.00 | 0.34 | 0.33 | 63 | 1017.8 |
| 20260501230230 | 43 | 311 | 6.0 | 10.0 | 0.00 | 0.34 | 0.33 | 63 | 1017.8 |
| 20260501230141 | 43 | 298 | 6.0 | 10.0 | 0.00 | 0.34 | 0.33 | 63 | 1017.8 |
| 20260501225911 | 44 | 314 | 6.0 | 12.0 | 0.00 | 0.34 | 0.33 | 61 | 1017.7 |
| 20260501225821 | 44 | 336 | 6.0 | 12.0 | 0.00 | 0.34 | 0.33 | 62 | 1017.7 |
| 20260501225737 | 44 | 344 | 7.0 | 12.0 | 0.00 | 0.34 | 0.33 | 62 | 1017.8 |
| 20260501225607 | 44 | 331 | 6.0 | 12.0 | 0.00 | 0.34 | 0.33 | 62 | 1017.7 |
| 20260501225518 | 44 | 48 | 4.0 | 12.0 | 0.00 | 0.34 | 0.33 | 63 | 1017.7 |
| 20260501225430 | 44 | 360 | 6.0 | 12.0 | 0.00 | 0.34 | 0.33 | 62 | 1017.7 |
| 20260501225318 | 44 | 312 | 8.0 | 12.0 | 0.00 | 0.34 | 0.33 | 62 | 1017.7 |
| 20260501225228 | 44 | 290 | 7.0 | 12.0 | 0.00 | 0.34 | 0.33 | 63 | 1017.7 |
| 20260501225140 | 44 | 305 | 4.0 | 12.0 | 0.00 | 0.34 | 0.33 | 63 | 1017.7 |
| 20260501225011 | 44 | 319 | 6.0 | 12.0 | 0.00 | 0.34 | 0.33 | 63 | 1017.7 |
| 20260501224921 | 44 | 308 | 8.0 | 12.0 | 0.00 | 0.34 | 0.33 | 62 | 1017.7 |
| 20260501224832 | 44 | 355 | 8.0 | 12.0 | 0.00 | 0.34 | 0.33 | 62 | 1017.6 |
| 20260501224742 | 44 | 335 | 7.0 | 11.0 | 0.00 | 0.34 | 0.33 | 62 | 1017.6 |
| 20260501224636 | 44 | 331 | 7.0 | 11.0 | 0.00 | 0.34 | 0.33 | 63 | 1017.8 |
| 20260501224558 | 44 | 355 | 7.0 | 11.0 | 0.00 | 0.34 | 0.33 | 63 | 1017.7 |
| 20260501224426 | 44 | 30 | 6.0 | 12.0 | 0.00 | 0.34 | 0.33 | 64 | 1017.8 |
| 20260501224338 | 44 | 15 | 5.0 | 12.0 | 0.00 | 0.34 | 0.33 | 63 | 1017.8 |
| 20260501224208 | 44 | 309 | 4.0 | 12.0 | 0.00 | 0.34 | 0.33 | 64 | 1017.8 |
| 20260501224121 | 44 | 5 | 5.0 | 12.0 | 0.00 | 0.34 | 0.33 | 63 | 1017.8 |
| 20260501224031 | 44 | 5 | 5.0 | 12.0 | 0.00 | 0.34 | 0.33 | 62 | 1017.8 |
| 20260501223921 | 44 | 344 | 6.0 | 12.0 | 0.00 | 0.34 | 0.33 | 61 | 1017.8 |
| 20260501223832 | 44 | 351 | 6.0 | 12.0 | 0.00 | 0.34 | 0.33 | 61 | 1017.7 |
| 20260501223742 | 44 | 314 | 8.0 | 12.0 | 0.00 | 0.34 | 0.33 | 60 | 1017.7 |
| 20260501223652 | 44 | 341 | 7.0 | 12.0 | 0.00 | 0.34 | 0.33 | 61 | 1017.9 |
| 20260501223543 | 44 | 333 | 6.0 | 13.0 | 0.00 | 0.34 | 0.33 | 62 | 1017.9 |
| 20260501223436 | 44 | 338 | 6.0 | 13.0 | 0.00 | 0.34 | 0.33 | 62 | 1017.8 |
| 20260501223308 | 44 | 9 | 5.0 | 13.0 | 0.00 | 0.34 | 0.33 | 61 | 1017.9 |
| 20260501223217 | 44 | 5 | 6.0 | 13.0 | 0.00 | 0.34 | 0.33 | 61 | 1017.8 |
| 20260501223108 | 44 | 314 | 7.0 | 13.0 | 0.00 | 0.34 | 0.33 | 60 | 1017.8 |
| 20260501223030 | 44 | 302 | 7.0 | 13.0 | 0.00 | 0.34 | 0.33 | 60 | 1017.9 |
| 20260501222919 | 44 | 292 | 8.0 | 13.0 | 0.00 | 0.34 | 0.33 | 61 | 1017.9 |
| 20260501222831 | 45 | 319 | 7.0 | 13.0 | 0.00 | 0.34 | 0.33 | 62 | 1017.7 |
| 20260501222719 | 44 | 317 | 6.0 | 13.0 | 0.00 | 0.34 | 0.33 | 63 | 1017.8 |
| 20260501222610 | 44 | 329 | 5.0 | 14.0 | 0.00 | 0.34 | 0.33 | 63 | 1017.7 |
| 20260501222521 | 44 | 5 | 6.0 | 14.0 | 0.00 | 0.34 | 0.33 | 62 | 1017.8 |
| 20260501222435 | 44 | 341 | 8.0 | 14.0 | 0.00 | 0.34 | 0.33 | 61 | 1017.7 |
| 20260501222324 | 44 | 307 | 8.0 | 14.0 | 0.00 | 0.34 | 0.33 | 61 | 1017.7 |
| 20260501222235 | 44 | 293 | 8.0 | 14.0 | 0.00 | 0.34 | 0.33 | 62 | 1017.7 |
| 20260501222124 | 44 | 317 | 6.0 | 14.0 | 0.00 | 0.34 | 0.33 | 61 | 1017.7 |
| 20260501222014 | 44 | 312 | 6.0 | 14.0 | 0.00 | 0.34 | 0.33 | 62 | 1017.7 |
| 20260501221904 | 44 | 360 | 7.0 | 14.0 | 0.00 | 0.34 | 0.33 | 63 | 1017.7 |
| 20260501221815 | 44 | 318 | 6.0 | 14.0 | 0.00 | 0.34 | 0.33 | 65 | 1017.7 |
| 20260501221705 | 44 | 346 | 7.0 | 13.0 | 0.00 | 0.34 | 0.33 | 64 | 1017.7 |
| 20260501221615 | 44 | 5 | 8.0 | 13.0 | 0.00 | 0.34 | 0.33 | 64 | 1017.7 |
| 20260501221535 | 44 | 308 | 9.0 | 13.0 | 0.00 | 0.34 | 0.33 | 63 | 1017.7 |
| 20260501221425 | 44 | 28 | 8.0 | 12.0 | 0.00 | 0.34 | 0.33 | 63 | 1017.7 |
| 20260501221320 | 44 | 322 | 7.0 | 12.0 | 0.00 | 0.34 | 0.33 | 63 | 1017.6 |
| 20260501221210 | 44 | 350 | 6.0 | 16.0 | 0.00 | 0.34 | 0.33 | 65 | 1017.7 |
| 20260501221101 | 44 | 322 | 6.0 | 17.0 | 0.00 | 0.34 | 0.33 | 65 | 1017.7 |
| 20260501221012 | 44 | 347 | 7.0 | 17.0 | 0.00 | 0.34 | 0.33 | 65 | 1017.7 |
| 20260501220923 | 44 | 10 | 8.0 | 17.0 | 0.00 | 0.34 | 0.33 | 63 | 1017.6 |
| 20260501220834 | 44 | 355 | 7.0 | 17.0 | 0.00 | 0.34 | 0.33 | 63 | 1017.7 |
| 20260501220744 | 44 | 342 | 7.0 | 17.0 | 0.00 | 0.34 | 0.33 | 63 | 1017.7 |
| 20260501220635 | 44 | 17 | 8.0 | 17.0 | 0.00 | 0.34 | 0.33 | 62 | 1017.7 |
| 20260501220545 | 44 | 355 | 9.0 | 17.0 | 0.00 | 0.34 | 0.33 | 61 | 1017.6 |
| 20260501220435 | 44 | 333 | 9.0 | 17.0 | 0.00 | 0.34 | 0.33 | 62 | 1017.6 |
| 20260501220310 | 44 | 294 | 7.0 | 17.0 | 0.00 | 0.34 | 0.33 | 62 | 1017.7 |
| 20260501220220 | 44 | 333 | 6.0 | 14.0 | 0.00 | 0.34 | 0.33 | 63 | 1017.6 |
| 20260501220111 | 44 | 313 | 7.0 | 16.0 | 0.00 | 0.34 | 0.33 | 62 | 1017.6 |
| 20260501220033 | 44 | 327 | 9.0 | 16.0 | 0.00 | 0.34 | 0.33 | 62 | 1017.6 |
| 20260501215905 | 44 | 286 | 8.0 | 16.0 | 0.00 | 0.34 | 0.33 | 62 | 1017.6 |
| 20260501215816 | 44 | 355 | 6.0 | 16.0 | 0.00 | 0.34 | 0.33 | 63 | 1017.5 |
| 20260501215708 | 44 | 303 | 8.0 | 16.0 | 0.00 | 0.34 | 0.33 | 62 | 1017.6 |
| 20260501215618 | 44 | 320 | 9.0 | 16.0 | 0.00 | 0.34 | 0.33 | 62 | 1017.6 |
| 20260501215508 | 44 | 295 | 9.0 | 17.0 | 0.00 | 0.34 | 0.33 | 61 | 1017.5 |
| 20260501215405 | 45 | 290 | 10.0 | 17.0 | 0.00 | 0.34 | 0.33 | 61 | 1017.6 |
| 20260501215315 | 45 | 284 | 11.0 | 17.0 | 0.00 | 0.34 | 0.33 | 61 | 1017.6 |
| 20260501215204 | 45 | 312 | 9.0 | 17.0 | 0.00 | 0.34 | 0.33 | 61 | 1017.6 |
| 20260501215116 | 45 | 288 | 7.0 | 17.0 | 0.00 | 0.34 | 0.33 | 62 | 1017.6 |
| 20260501215006 | 45 | 262 | 8.0 | 17.0 | 0.00 | 0.34 | 0.33 | 61 | 1017.7 |
| 20260501214917 | 45 | 305 | 10.0 | 17.0 | 0.00 | 0.34 | 0.33 | 60 | 1017.7 |
| 20260501214806 | 45 | 311 | 10.0 | 17.0 | 0.00 | 0.34 | 0.33 | 60 | 1017.7 |
| 20260501214716 | 45 | 317 | 10.0 | 17.0 | 0.00 | 0.34 | 0.33 | 61 | 1017.7 |
| 20260501214611 | 45 | 319 | 11.0 | 16.0 | 0.00 | 0.34 | 0.33 | 61 | 1017.6 |
| 20260501214533 | 45 | 300 | 10.0 | 16.0 | 0.00 | 0.34 | 0.33 | 60 | 1017.5 |
| 20260501214404 | 45 | 304 | 7.0 | 13.0 | 0.00 | 0.34 | 0.33 | 64 | 1017.5 |
| 20260501214314 | 45 | 274 | 7.0 | 13.0 | 0.00 | 0.34 | 0.33 | 63 | 1017.6 |
| 20260501214224 | 45 | 360 | 8.0 | 14.0 | 0.00 | 0.34 | 0.33 | 62 | 1017.5 |
| 20260501214135 | 45 | 355 | 8.0 | 17.0 | 0.00 | 0.34 | 0.33 | 63 | 1017.6 |
| 20260501214005 | 45 | 327 | 9.0 | 17.0 | 0.00 | 0.34 | 0.33 | 62 | 1017.6 |
| 20260501213918 | 45 | 317 | 9.0 | 17.0 | 0.00 | 0.34 | 0.33 | 62 | 1017.5 |
| 20260501213828 | 45 | 329 | 7.0 | 17.0 | 0.00 | 0.34 | 0.33 | 64 | 1017.6 |
| 20260501213719 | 45 | 326 | 7.0 | 17.0 | 0.00 | 0.34 | 0.33 | 63 | 1017.6 |
| 20260501213614 | 45 | 279 | 8.0 | 17.0 | 0.00 | 0.34 | 0.33 | 63 | 1017.5 |
| 20260501213525 | 45 | 319 | 10.0 | 17.0 | 0.00 | 0.34 | 0.33 | 62 | 1017.5 |
| 20260501213436 | 45 | 315 | 11.0 | 17.0 | 0.00 | 0.34 | 0.33 | 61 | 1017.7 |
| 20260501213309 | 45 | 290 | 9.0 | 17.0 | 0.00 | 0.34 | 0.33 | 63 | 1017.4 |
| 20260501213218 | 45 | 304 | 8.0 | 17.0 | 0.00 | 0.34 | 0.33 | 61 | 1017.5 |
| 20260501213110 | 45 | 294 | 10.0 | 17.0 | 0.00 | 0.34 | 0.33 | 61 | 1017.5 |
| 20260501213031 | 45 | 303 | 10.0 | 17.0 | 0.00 | 0.34 | 0.33 | 61 | 1017.5 |
| 20260501212923 | 45 | 283 | 7.0 | 13.0 | 0.00 | 0.34 | 0.33 | 63 | 1017.5 |
| 20260501212812 | 45 | 292 | 6.0 | 13.0 | 0.00 | 0.34 | 0.33 | 62 | 1017.6 |
| 20260501212724 | 45 | 309 | 6.0 | 13.0 | 0.00 | 0.34 | 0.33 | 65 | 1017.5 |
| 20260501212635 | 45 | 360 | 5.0 | 13.0 | 0.00 | 0.34 | 0.33 | 63 | 1017.5 |
| 20260501212508 | 45 | 309 | 7.0 | 13.0 | 0.00 | 0.34 | 0.33 | 62 | 1017.4 |
| 20260501212419 | 45 | 328 | 8.0 | 13.0 | 0.00 | 0.34 | 0.33 | 62 | 1017.4 |
| 20260501212330 | 45 | 288 | 8.0 | 13.0 | 0.00 | 0.34 | 0.33 | 64 | 1017.4 |
| 20260501212241 | 45 | 315 | 9.0 | 13.0 | 0.00 | 0.34 | 0.33 | 63 | 1017.4 |
| 20260501212131 | 46 | 284 | 8.0 | 13.0 | 0.00 | 0.34 | 0.33 | 62 | 1017.4 |
| 20260501212021 | 46 | 293 | 6.0 | 11.0 | 0.00 | 0.34 | 0.33 | 65 | 1017.4 |
| 20260501211933 | 46 | 309 | 6.0 | 11.0 | 0.00 | 0.34 | 0.33 | 65 | 1017.3 |
| 20260501211802 | 45 | 300 | 6.0 | 11.0 | 0.00 | 0.34 | 0.33 | 66 | 1017.4 |
| 20260501211713 | 45 | 313 | 7.0 | 11.0 | 0.00 | 0.34 | 0.33 | 65 | 1017.4 |
| 20260501211604 | 45 | 300 | 6.0 | 13.0 | 0.00 | 0.34 | 0.33 | 66 | 1017.4 |
| 20260501211530 | 45 | 303 | 5.0 | 13.0 | 0.00 | 0.34 | 0.33 | 66 | 1017.3 |
| 20260501211419 | 45 | 306 | 5.0 | 13.0 | 0.00 | 0.34 | 0.33 | 65 | 1017.3 |
| 20260501211329 | 45 | 295 | 7.0 | 13.0 | 0.00 | 0.34 | 0.33 | 65 | 1017.3 |
| 20260501211218 | 45 | 272 | 7.0 | 13.0 | 0.00 | 0.34 | 0.33 | 65 | 1017.3 |
| 20260501211130 | 45 | 335 | 6.0 | 13.0 | 0.00 | 0.34 | 0.33 | 65 | 1017.3 |
| 20260501211040 | 45 | 333 | 7.0 | 13.0 | 0.00 | 0.34 | 0.33 | 66 | 1017.3 |
| 20260501210910 | 45 | 360 | 8.0 | 13.0 | 0.00 | 0.34 | 0.33 | 66 | 1017.3 |
| 20260501210822 | 45 | 360 | 6.0 | 13.0 | 0.00 | 0.34 | 0.33 | 67 | 1017.3 |
| 20260501210732 | 45 | 288 | 6.0 | 12.0 | 0.00 | 0.34 | 0.33 | 68 | 1017.4 |
| 20260501210644 | 45 | 309 | 5.0 | 12.0 | 0.00 | 0.34 | 0.33 | 66 | 1017.4 |
| 20260501210534 | 45 | 315 | 4.0 | 12.0 | 0.00 | 0.34 | 0.33 | 65 | 1017.4 |
| 20260501210425 | 45 | 342 | 7.0 | 12.0 | 0.00 | 0.34 | 0.33 | 65 | 1017.4 |
| 20260501210321 | 45 | 355 | 8.0 | 14.0 | 0.00 | 0.34 | 0.33 | 65 | 1017.4 |
| 20260501210210 | 45 | 344 | 8.0 | 14.0 | 0.00 | 0.34 | 0.33 | 66 | 1017.3 |
| 20260501210122 | 45 | 290 | 7.0 | 14.0 | 0.00 | 0.34 | 0.33 | 66 | 1017.4 |
| 20260501210022 | 45 | 320 | 6.0 | 14.0 | 0.00 | 0.34 | 0.33 | 66 | 1017.3 |
| 20260501205912 | 45 | 319 | 7.0 | 17.0 | 0.00 | 0.34 | 0.33 | 66 | 1017.4 |
| 20260501205803 | 45 | 14 | 8.0 | 17.0 | 0.00 | 0.34 | 0.33 | 65 | 1017.3 |
| 20260501205713 | 45 | 343 | 7.0 | 17.0 | 0.00 | 0.34 | 0.33 | 65 | 1017.4 |
| 20260501205603 | 45 | 321 | 8.0 | 17.0 | 0.00 | 0.34 | 0.33 | 63 | 1017.4 |
| 20260501205513 | 45 | 300 | 8.0 | 17.0 | 0.00 | 0.34 | 0.33 | 64 | 1017.4 |
| 20260501205426 | 45 | 5 | 7.0 | 17.0 | 0.00 | 0.34 | 0.33 | 64 | 1017.4 |
| 20260501205342 | 45 | 351 | 8.0 | 17.0 | 0.00 | 0.34 | 0.33 | 64 | 1017.4 |
| 20260501205231 | 45 | 289 | 11.0 | 17.0 | 0.00 | 0.34 | 0.33 | 63 | 1017.4 |
| 20260501205120 | 45 | 355 | 9.0 | 17.0 | 0.00 | 0.34 | 0.33 | 63 | 1017.3 |
| 20260501205031 | 45 | 312 | 7.0 | 16.0 | 0.00 | 0.34 | 0.33 | 65 | 1017.3 |
| 20260501204920 | 45 | 321 | 6.0 | 16.0 | 0.00 | 0.34 | 0.33 | 66 | 1017.3 |
| 20260501204811 | 45 | 336 | 6.0 | 16.0 | 0.00 | 0.34 | 0.33 | 68 | 1017.2 |
| 20260501204721 | 45 | 5 | 7.0 | 16.0 | 0.00 | 0.34 | 0.33 | 65 | 1017.3 |
| 20260501204612 | 45 | 15 | 8.0 | 16.0 | 0.00 | 0.34 | 0.33 | 66 | 1017.3 |
| 20260501204534 | 45 | 355 | 9.0 | 16.0 | 0.00 | 0.34 | 0.33 | 66 | 1017.3 |
| 20260501204404 | 45 | 348 | 8.0 | 16.0 | 0.00 | 0.34 | 0.33 | 66 | 1017.3 |
| 20260501204319 | 45 | 285 | 7.0 | 15.0 | 0.00 | 0.34 | 0.33 | 67 | 1017.3 |
| 20260501204211 | 45 | 335 | 8.0 | 14.0 | 0.00 | 0.34 | 0.33 | 65 | 1017.2 |
| 20260501204101 | 45 | 290 | 8.0 | 14.0 | 0.00 | 0.34 | 0.33 | 65 | 1017.2 |
| 20260501204013 | 45 | 271 | 7.0 | 13.0 | 0.00 | 0.34 | 0.33 | 65 | 1017.2 |
| 20260501203905 | 45 | 307 | 7.0 | 15.0 | 0.00 | 0.34 | 0.33 | 66 | 1017.3 |
| 20260501203815 | 45 | 323 | 8.0 | 15.0 | 0.00 | 0.34 | 0.33 | 66 | 1017.2 |
| 20260501203726 | 45 | 284 | 9.0 | 15.0 | 0.00 | 0.34 | 0.33 | 64 | 1017.2 |
| 20260501203638 | 45 | 304 | 10.0 | 15.0 | 0.00 | 0.34 | 0.33 | 65 | 1017.3 |
| 20260501203508 | 45 | 273 | 9.0 | 15.0 | 0.00 | 0.34 | 0.33 | 64 | 1017.2 |
| 20260501203404 | 45 | 300 | 10.0 | 15.0 | 0.00 | 0.34 | 0.33 | 64 | 1017.4 |
| 20260501203316 | 45 | 320 | 10.0 | 15.0 | 0.00 | 0.34 | 0.33 | 62 | 1017.3 |
| 20260501203225 | 45 | 292 | 10.0 | 15.0 | 0.00 | 0.34 | 0.33 | 62 | 1017.2 |
| 20260501203113 | 45 | 300 | 9.0 | 15.0 | 0.00 | 0.34 | 0.33 | 63 | 1017.3 |
| 20260501203036 | 45 | 280 | 10.0 | 15.0 | 0.00 | 0.34 | 0.33 | 63 | 1017.3 |
| 20260501202905 | 45 | 298 | 11.0 | 15.0 | 0.00 | 0.34 | 0.33 | 62 | 1017.3 |
| 20260501202816 | 45 | 294 | 10.0 | 15.0 | 0.00 | 0.34 | 0.33 | 62 | 1017.2 |
| 20260501202728 | 45 | 315 | 10.0 | 16.0 | 0.00 | 0.34 | 0.33 | 62 | 1017.3 |
| 20260501202639 | 45 | 284 | 10.0 | 16.0 | 0.00 | 0.34 | 0.33 | 64 | 1017.2 |
| 20260501202510 | 46 | 309 | 10.0 | 16.0 | 0.00 | 0.34 | 0.33 | 63 | 1017.2 |
| 20260501202404 | 46 | 293 | 10.0 | 16.0 | 0.00 | 0.34 | 0.33 | 63 | 1017.3 |
| 20260501202314 | 46 | 290 | 10.0 | 16.0 | 0.00 | 0.34 | 0.33 | 66 | 1017.3 |
| 20260501202206 | 46 | 263 | 10.0 | 16.0 | 0.00 | 0.34 | 0.33 | 65 | 1017.2 |
| 20260501202118 | 46 | 349 | 11.0 | 16.0 | 0.00 | 0.34 | 0.33 | 65 | 1017.3 |
| 20260501202029 | 46 | 292 | 10.0 | 16.0 | 0.00 | 0.34 | 0.33 | 66 | 1017.3 |
| 20260501201939 | 46 | 334 | 10.0 | 15.0 | 0.00 | 0.34 | 0.33 | 64 | 1017.3 |
| 20260501201809 | 46 | 12 | 10.0 | 15.0 | 0.00 | 0.34 | 0.33 | 63 | 1017.3 |
| 20260501201719 | 46 | 360 | 9.0 | 13.0 | 0.00 | 0.34 | 0.33 | 66 | 1017.4 |
| 20260501201610 | 46 | 5 | 7.0 | 13.0 | 0.00 | 0.34 | 0.33 | 67 | 1017.4 |
| 20260501201545 | 46 | 324 | 6.0 | 13.0 | 0.00 | 0.34 | 0.33 | 67 | 1017.4 |
| 20260501201434 | 46 | 319 | 5.0 | 13.0 | 0.00 | 0.34 | 0.33 | 67 | 1017.4 |
| 20260501201304 | 46 | 332 | 7.0 | 13.0 | 0.00 | 0.34 | 0.33 | 64 | 1017.4 |
| 20260501201214 | 45 | 338 | 7.0 | 14.0 | 0.00 | 0.34 | 0.33 | 65 | 1017.4 |
| 20260501201106 | 45 | 307 | 7.0 | 14.0 | 0.00 | 0.34 | 0.33 | 66 | 1017.4 |
| 20260501201017 | 45 | 9 | 8.0 | 14.0 | 0.00 | 0.34 | 0.33 | 65 | 1017.3 |
| 20260501200928 | 45 | 306 | 8.0 | 14.0 | 0.00 | 0.34 | 0.33 | 67 | 1017.4 |
| 20260501200817 | 45 | 340 | 7.0 | 14.0 | 0.00 | 0.34 | 0.33 | 66 | 1017.3 |
| 20260501200729 | 45 | 309 | 7.0 | 14.0 | 0.00 | 0.34 | 0.33 | 64 | 1017.4 |
| 20260501200619 | 45 | 342 | 8.0 | 14.0 | 0.00 | 0.34 | 0.33 | 66 | 1017.4 |
| 20260501200514 | 45 | 342 | 9.0 | 14.0 | 0.00 | 0.34 | 0.33 | 66 | 1017.4 |
| 20260501200424 | 46 | 322 | 8.0 | 14.0 | 0.00 | 0.34 | 0.33 | 66 | 1017.4 |
| 20260501200337 | 45 | 343 | 7.0 | 14.0 | 0.00 | 0.34 | 0.33 | 66 | 1017.4 |
| 20260501200204 | 45 | 316 | 8.0 | 14.0 | 0.00 | 0.34 | 0.33 | 66 | 1017.5 |
| 20260501200116 | 45 | 323 | 8.0 | 14.0 | 0.00 | 0.34 | 0.33 | 67 | 1017.4 |
| 20260501200037 | 45 | 337 | 8.0 | 14.0 | 0.00 | 0.34 | 0.33 | 66 | 1017.4 |
| 20260501195907 | 45 | 333 | 8.0 | 14.0 | 0.00 | 0.34 | 0.33 | 65 | 1017.3 |
| 20260501195819 | 45 | 342 | 7.0 | 14.0 | 0.00 | 0.34 | 0.33 | 66 | 1017.3 |
| 20260501195729 | 45 | 303 | 7.0 | 13.0 | 0.00 | 0.34 | 0.33 | 66 | 1017.3 |
| 20260501195620 | 45 | 355 | 7.0 | 15.0 | 0.00 | 0.34 | 0.33 | 65 | 1017.4 |
| 20260501195514 | 45 | 314 | 7.0 | 15.0 | 0.00 | 0.34 | 0.33 | 65 | 1017.3 |
| 20260501195425 | 45 | 319 | 7.0 | 15.0 | 0.00 | 0.34 | 0.33 | 63 | 1017.4 |
| 20260501195315 | 46 | 317 | 8.0 | 15.0 | 0.00 | 0.34 | 0.33 | 63 | 1017.3 |
| 20260501195227 | 46 | 308 | 8.0 | 15.0 | 0.00 | 0.34 | 0.33 | 66 | 1017.3 |
| 20260501195112 | 46 | 319 | 7.0 | 15.0 | 0.00 | 0.34 | 0.33 | 68 | 1017.4 |
| 20260501195004 | 46 | 331 | 6.0 | 15.0 | 0.00 | 0.34 | 0.33 | 68 | 1017.2 |
| 20260501194914 | 46 | 319 | 8.0 | 15.0 | 0.00 | 0.34 | 0.33 | 66 | 1017.2 |
| 20260501194805 | 46 | 311 | 9.0 | 15.0 | 0.00 | 0.34 | 0.33 | 66 | 1017.3 |
| 20260501194714 | 46 | 287 | 10.0 | 14.0 | 0.00 | 0.34 | 0.33 | 67 | 1017.4 |
| 20260501194605 | 46 | 321 | 10.0 | 14.0 | 0.00 | 0.34 | 0.33 | 66 | 1017.3 |
| 20260501194530 | 46 | 330 | 9.0 | 14.0 | 0.00 | 0.34 | 0.33 | 67 | 1017.2 |
| 20260501194421 | 46 | 360 | 8.0 | 14.0 | 0.00 | 0.34 | 0.33 | 66 | 1017.2 |
| 20260501194331 | 46 | 311 | 6.0 | 14.0 | 0.00 | 0.34 | 0.33 | 67 | 1017.2 |
| 20260501194219 | 46 | 336 | 5.0 | 14.0 | 0.00 | 0.34 | 0.33 | 67 | 1017.2 |
| 20260501194109 | 46 | 308 | 6.0 | 14.0 | 0.00 | 0.34 | 0.33 | 65 | 1017.2 |
| 20260501194020 | 46 | 290 | 8.0 | 14.0 | 0.00 | 0.34 | 0.33 | 66 | 1017.2 |
| 20260501193910 | 46 | 322 | 9.0 | 14.0 | 0.00 | 0.34 | 0.33 | 67 | 1017.3 |
| 20260501193820 | 46 | 336 | 8.0 | 13.0 | 0.00 | 0.34 | 0.33 | 67 | 1017.2 |
| 20260501193711 | 46 | 351 | 4.0 | 17.0 | 0.00 | 0.34 | 0.33 | 68 | 1017.2 |
| 20260501193605 | 45 | 11 | 3.0 | 17.0 | 0.00 | 0.34 | 0.33 | 70 | 1017.2 |
| 20260501193516 | 45 | 317 | 5.0 | 17.0 | 0.00 | 0.34 | 0.33 | 68 | 1017.2 |
| 20260501193405 | 45 | 329 | 8.0 | 17.0 | 0.00 | 0.34 | 0.33 | 67 | 1017.2 |
| 20260501193318 | 45 | 342 | 9.0 | 17.0 | 0.00 | 0.34 | 0.33 | 67 | 1017.1 |
| 20260501193208 | 45 | 355 | 7.0 | 17.0 | 0.00 | 0.34 | 0.33 | 68 | 1017.2 |
| 20260501193119 | 45 | 304 | 8.0 | 17.0 | 0.00 | 0.34 | 0.33 | 66 | 1017.2 |
| 20260501193039 | 45 | 319 | 10.0 | 17.0 | 0.00 | 0.34 | 0.33 | 66 | 1017.2 |
| 20260501192910 | 45 | 321 | 10.0 | 17.0 | 0.00 | 0.34 | 0.33 | 67 | 1017.2 |
| 20260501192821 | 45 | 315 | 8.0 | 15.0 | 0.00 | 0.34 | 0.33 | 67 | 1017.2 |
| 20260501192716 | 45 | 351 | 7.0 | 15.0 | 0.00 | 0.34 | 0.33 | 66 | 1017.2 |
| 20260501192608 | 45 | 22 | 7.0 | 15.0 | 0.00 | 0.34 | 0.33 | 67 | 1017.1 |
| 20260501192519 | 45 | 15 | 8.0 | 15.0 | 0.00 | 0.34 | 0.33 | 67 | 1017.1 |
| 20260501192409 | 44 | 360 | 9.0 | 15.0 | 0.00 | 0.34 | 0.33 | 67 | 1017.1 |
| 20260501192320 | 45 | 329 | 9.0 | 15.0 | 0.00 | 0.34 | 0.33 | 66 | 1017.1 |
| 20260501192211 | 45 | 5 | 8.0 | 15.0 | 0.00 | 0.34 | 0.33 | 67 | 1017.1 |
| 20260501192103 | 45 | 22 | 6.0 | 15.0 | 0.00 | 0.34 | 0.33 | 66 | 1017.1 |
| 20260501192014 | 45 | 313 | 6.0 | 15.0 | 0.00 | 0.34 | 0.33 | 66 | 1017.1 |
| 20260501191924 | 45 | 302 | 6.0 | 15.0 | 0.00 | 0.34 | 0.33 | 66 | 1017.1 |
| 20260501191839 | 45 | 321 | 7.0 | 15.0 | 0.00 | 0.34 | 0.33 | 65 | 1017.1 |
| 20260501191749 | 45 | 342 | 6.0 | 15.0 | 0.00 | 0.34 | 0.33 | 66 | 1017.2 |
| 20260501191639 | 44 | 325 | 8.0 | 17.0 | 0.00 | 0.34 | 0.33 | 66 | 1017.0 |
| 20260501191540 | 44 | 305 | 9.0 | 17.0 | 0.00 | 0.34 | 0.33 | 66 | 1017.1 |
| 20260501191410 | 45 | 307 | 10.0 | 17.0 | 0.00 | 0.34 | 0.33 | 65 | 1017.0 |
| 20260501191321 | 45 | 329 | 9.0 | 17.0 | 0.00 | 0.34 | 0.33 | 64 | 1017.0 |
| 20260501191212 | 45 | 306 | 6.0 | 17.0 | 0.00 | 0.34 | 0.33 | 65 | 1017.0 |
| 20260501191122 | 45 | 314 | 7.0 | 17.0 | 0.00 | 0.34 | 0.33 | 64 | 1017.0 |
| 20260501191034 | 45 | 321 | 9.0 | 17.0 | 0.00 | 0.34 | 0.33 | 64 | 1017.1 |
| 20260501190945 | 45 | 292 | 10.0 | 17.0 | 0.00 | 0.34 | 0.33 | 64 | 1017.1 |
| 20260501190834 | 45 | 319 | 11.0 | 17.0 | 0.00 | 0.34 | 0.33 | 63 | 1017.0 |
| 20260501190708 | 45 | 285 | 9.0 | 15.0 | 0.00 | 0.34 | 0.33 | 65 | 1017.0 |
| 20260501190619 | 45 | 295 | 9.0 | 14.0 | 0.00 | 0.34 | 0.33 | 67 | 1017.0 |
| 20260501190508 | 45 | 312 | 8.0 | 15.0 | 0.00 | 0.34 | 0.33 | 66 | 1017.0 |
| 20260501190418 | 45 | 11 | 6.0 | 15.0 | 0.00 | 0.34 | 0.33 | 66 | 1016.9 |
| 20260501190310 | 45 | 337 | 6.0 | 15.0 | 0.00 | 0.34 | 0.33 | 64 | 1016.9 |
| 20260501190218 | 45 | 348 | 6.0 | 15.0 | 0.00 | 0.34 | 0.33 | 65 | 1016.9 |
| 20260501190110 | 46 | 18 | 6.0 | 15.0 | 0.00 | 0.34 | 0.33 | 66 | 1016.9 |
| 20260501190032 | 46 | 299 | 6.0 | 15.0 | 0.00 | 0.34 | 0.33 | 67 | 1016.9 |
| 20260501185906 | 46 | 317 | 9.0 | 15.0 | 0.00 | 0.34 | 0.33 | 66 | 1016.9 |
| 20260501185818 | 46 | 355 | 10.0 | 15.0 | 0.00 | 0.34 | 0.33 | 66 | 1016.9 |
| 20260501185729 | 46 | 331 | 8.0 | 15.0 | 0.00 | 0.34 | 0.33 | 69 | 1016.8 |
| 20260501185619 | 46 | 351 | 6.0 | 14.0 | 0.00 | 0.34 | 0.33 | 68 | 1016.9 |
| 20260501185509 | 46 | 316 | 7.0 | 14.0 | 0.00 | 0.34 | 0.33 | 68 | 1016.8 |
| 20260501185420 | 46 | 5 | 8.0 | 14.0 | 0.00 | 0.34 | 0.33 | 67 | 1016.8 |
| 20260501185310 | 46 | 280 | 7.0 | 19.0 | 0.00 | 0.34 | 0.33 | 68 | 1016.9 |
| 20260501185220 | 46 | 327 | 7.0 | 19.0 | 0.00 | 0.34 | 0.33 | 67 | 1016.8 |
| 20260501185112 | 46 | 340 | 7.0 | 19.0 | 0.00 | 0.34 | 0.33 | 68 | 1016.8 |
| 20260501185008 | 46 | 292 | 6.0 | 19.0 | 0.00 | 0.34 | 0.33 | 68 | 1016.8 |
| 20260501184920 | 46 | 316 | 5.0 | 19.0 | 0.00 | 0.34 | 0.33 | 68 | 1016.8 |
| 20260501184810 | 46 | 300 | 6.0 | 19.0 | 0.00 | 0.34 | 0.33 | 67 | 1016.8 |
| 20260501184721 | 46 | 321 | 8.0 | 19.0 | 0.00 | 0.34 | 0.33 | 68 | 1016.7 |
| 20260501184611 | 46 | 308 | 8.0 | 19.0 | 0.00 | 0.34 | 0.33 | 68 | 1016.7 |
| 20260501184535 | 46 | 316 | 6.0 | 19.0 | 0.00 | 0.34 | 0.33 | 69 | 1016.7 |
| 20260501184404 | 46 | 302 | 5.0 | 15.0 | 0.00 | 0.34 | 0.33 | 69 | 1016.6 |
| 20260501184317 | 46 | 317 | 6.0 | 15.0 | 0.00 | 0.34 | 0.33 | 68 | 1016.8 |
| 20260501184207 | 46 | 301 | 7.0 | 15.0 | 0.00 | 0.34 | 0.33 | 67 | 1016.8 |
| 20260501184102 | 46 | 288 | 8.0 | 15.0 | 0.00 | 0.34 | 0.33 | 67 | 1016.8 |
| 20260501184011 | 46 | 285 | 8.0 | 15.0 | 0.00 | 0.34 | 0.33 | 68 | 1016.7 |
| 20260501183902 | 46 | 300 | 7.0 | 12.0 | 0.00 | 0.34 | 0.33 | 68 | 1016.6 |
| 20260501183813 | 46 | 336 | 7.0 | 12.0 | 0.00 | 0.34 | 0.33 | 67 | 1016.6 |
| 20260501183702 | 46 | 327 | 7.0 | 12.0 | 0.00 | 0.34 | 0.33 | 69 | 1016.6 |
| 20260501183613 | 45 | 19 | 5.0 | 11.0 | 0.00 | 0.34 | 0.33 | 68 | 1016.6 |
| 20260501183505 | 45 | 297 | 4.0 | 10.0 | 0.00 | 0.34 | 0.33 | 68 | 1016.5 |
| 20260501183416 | 45 | 303 | 6.0 | 11.0 | 0.00 | 0.34 | 0.33 | 69 | 1016.5 |
| 20260501183313 | 45 | 317 | 7.0 | 11.0 | 0.00 | 0.34 | 0.33 | 68 | 1016.6 |
| 20260501183222 | 45 | 286 | 6.0 | 11.0 | 0.00 | 0.34 | 0.33 | 68 | 1016.5 |
| 20260501183133 | 45 | 304 | 5.0 | 11.0 | 0.00 | 0.34 | 0.33 | 68 | 1016.5 |
| 20260501183056 | 45 | 309 | 6.0 | 11.0 | 0.00 | 0.34 | 0.33 | 67 | 1016.5 |
| 20260501182905 | 45 | 294 | 6.0 | 11.0 | 0.00 | 0.34 | 0.33 | 67 | 1016.5 |
| 20260501182815 | 45 | 336 | 6.0 | 11.0 | 0.00 | 0.34 | 0.33 | 67 | 1016.5 |
| 20260501182708 | 45 | 300 | 8.0 | 11.0 | 0.00 | 0.34 | 0.33 | 66 | 1016.4 |
| 20260501182618 | 45 | 297 | 7.0 | 11.0 | 0.00 | 0.34 | 0.33 | 66 | 1016.5 |
| 20260501182529 | 45 | 290 | 7.0 | 11.0 | 0.00 | 0.34 | 0.33 | 67 | 1016.5 |
| 20260501182417 | 45 | 321 | 7.0 | 11.0 | 0.00 | 0.34 | 0.33 | 68 | 1016.5 |
| 20260501182329 | 45 | 355 | 7.0 | 11.0 | 0.00 | 0.34 | 0.33 | 68 | 1016.5 |
| 20260501182202 | 45 | 321 | 6.0 | 11.0 | 0.00 | 0.34 | 0.33 | 69 | 1016.4 |
| 20260501182114 | 45 | 317 | 6.0 | 11.0 | 0.00 | 0.34 | 0.33 | 69 | 1016.5 |
| 20260501182024 | 45 | 28 | 6.0 | 11.0 | 0.00 | 0.34 | 0.33 | 68 | 1016.5 |
| 20260501181935 | 45 | 18 | 6.0 | 11.0 | 0.00 | 0.34 | 0.33 | 68 | 1016.5 |
| 20260501181804 | 45 | 346 | 7.0 | 13.0 | 0.00 | 0.34 | 0.33 | 68 | 1016.5 |
| 20260501181714 | 45 | 324 | 6.0 | 14.0 | 0.00 | 0.34 | 0.33 | 68 | 1016.5 |
| 20260501181605 | 45 | 298 | 5.0 | 14.0 | 0.00 | 0.34 | 0.33 | 69 | 1016.5 |
| 20260501181527 | 45 | 293 | 5.0 | 15.0 | 0.00 | 0.34 | 0.33 | 69 | 1016.5 |
| 20260501181417 | 45 | 301 | 6.0 | 15.0 | 0.00 | 0.34 | 0.33 | 69 | 1016.5 |
| 20260501181328 | 45 | 320 | 6.0 | 15.0 | 0.00 | 0.34 | 0.33 | 70 | 1016.5 |
| 20260501181242 | 45 | 293 | 6.0 | 15.0 | 0.00 | 0.34 | 0.33 | 68 | 1016.6 |
| 20260501181110 | 44 | 325 | 9.0 | 15.0 | 0.00 | 0.34 | 0.33 | 67 | 1016.6 |
| 20260501181002 | 44 | 281 | 9.0 | 15.0 | 0.00 | 0.34 | 0.33 | 67 | 1016.6 |
| 20260501180913 | 44 | 298 | 9.0 | 15.0 | 0.00 | 0.34 | 0.33 | 67 | 1016.6 |
| 20260501180825 | 45 | 315 | 9.0 | 15.0 | 0.00 | 0.34 | 0.33 | 67 | 1016.6 |
| 20260501180735 | 45 | 336 | 10.0 | 15.0 | 0.00 | 0.34 | 0.33 | 67 | 1016.6 |
| 20260501180644 | 45 | 342 | 9.0 | 15.0 | 0.00 | 0.34 | 0.33 | 68 | 1016.6 |
| 20260501180555 | 45 | 304 | 7.0 | 14.0 | 0.00 | 0.34 | 0.33 | 67 | 1016.5 |
| 20260501180445 | 45 | 15 | 8.0 | 15.0 | 0.00 | 0.34 | 0.33 | 67 | 1016.5 |
| 20260501180358 | 45 | 311 | 9.0 | 15.0 | 0.00 | 0.34 | 0.33 | 67 | 1016.5 |
| 20260501180246 | 45 | 355 | 8.0 | 20.0 | 0.00 | 0.34 | 0.33 | 66 | 1016.6 |
| 20260501180139 | 45 | 351 | 7.0 | 20.0 | 0.00 | 0.34 | 0.33 | 68 | 1016.6 |
| 20260501180040 | 45 | 321 | 7.0 | 20.0 | 0.00 | 0.34 | 0.33 | 68 | 1016.6 |
| 20260501175910 | 45 | 355 | 7.0 | 20.0 | 0.00 | 0.34 | 0.33 | 68 | 1016.6 |
| 20260501175820 | 45 | 322 | 8.0 | 20.0 | 0.00 | 0.34 | 0.33 | 68 | 1016.6 |
| 20260501175711 | 45 | 320 | 10.0 | 20.0 | 0.00 | 0.34 | 0.33 | 66 | 1016.5 |
| 20260501175603 | 45 | 351 | 10.0 | 20.0 | 0.00 | 0.34 | 0.33 | 68 | 1016.5 |
| 20260501175513 | 45 | 19 | 12.0 | 20.0 | 0.00 | 0.34 | 0.33 | 66 | 1016.4 |
| 20260501175404 | 45 | 296 | 10.0 | 16.0 | 0.00 | 0.34 | 0.33 | 68 | 1016.5 |
| 20260501175315 | 45 | 323 | 9.0 | 15.0 | 0.00 | 0.34 | 0.33 | 69 | 1016.5 |
| 20260501175211 | 45 | 294 | 8.0 | 15.0 | 0.00 | 0.34 | 0.33 | 70 | 1016.5 |
| 20260501175102 | 45 | 10 | 10.0 | 15.0 | 0.00 | 0.34 | 0.33 | 70 | 1016.4 |
| 20260501175013 | 45 | 339 | 11.0 | 15.0 | 0.00 | 0.34 | 0.33 | 69 | 1016.4 |
| 20260501174925 | 45 | 293 | 10.0 | 15.0 | 0.00 | 0.34 | 0.33 | 69 | 1016.5 |
| 20260501174834 | 45 | 312 | 10.0 | 15.0 | 0.00 | 0.34 | 0.33 | 70 | 1016.5 |
| 20260501174746 | 45 | 308 | 10.0 | 15.0 | 0.00 | 0.34 | 0.33 | 68 | 1016.5 |
| 20260501174635 | 45 | 303 | 8.0 | 15.0 | 0.00 | 0.34 | 0.33 | 69 | 1016.5 |
| 20260501174559 | 45 | 300 | 7.0 | 15.0 | 0.00 | 0.34 | 0.33 | 69 | 1016.5 |
| 20260501174448 | 45 | 300 | 10.0 | 16.0 | 0.00 | 0.34 | 0.33 | 69 | 1016.5 |
| 20260501174338 | 45 | 310 | 11.0 | 16.0 | 0.00 | 0.34 | 0.33 | 67 | 1016.4 |
| 20260501174212 | 45 | 300 | 9.0 | 16.0 | 0.00 | 0.34 | 0.33 | 68 | 1016.4 |
| 20260501174103 | 46 | 317 | 9.0 | 16.0 | 0.00 | 0.34 | 0.33 | 68 | 1016.6 |
| 20260501174015 | 46 | 304 | 8.0 | 16.0 | 0.00 | 0.34 | 0.33 | 67 | 1016.5 |
| 20260501173905 | 46 | 308 | 8.0 | 16.0 | 0.00 | 0.34 | 0.33 | 67 | 1016.4 |
| 20260501173815 | 46 | 327 | 10.0 | 16.0 | 0.00 | 0.34 | 0.33 | 66 | 1016.4 |
| 20260501173706 | 46 | 319 | 10.0 | 17.0 | 0.00 | 0.34 | 0.33 | 66 | 1016.4 |
| 20260501173617 | 46 | 282 | 9.0 | 17.0 | 0.00 | 0.34 | 0.33 | 66 | 1016.3 |
| 20260501173510 | 46 | 313 | 10.0 | 17.0 | 0.00 | 0.34 | 0.33 | 65 | 1016.5 |
| 20260501173403 | 46 | 311 | 8.0 | 17.0 | 0.00 | 0.34 | 0.33 | 66 | 1016.4 |
| 20260501173318 | 46 | 327 | 10.0 | 17.0 | 0.00 | 0.34 | 0.33 | 67 | 1016.4 |
| 20260501173207 | 46 | 311 | 9.0 | 17.0 | 0.00 | 0.34 | 0.33 | 68 | 1016.4 |
| 20260501173118 | 46 | 303 | 10.0 | 17.0 | 0.00 | 0.34 | 0.33 | 65 | 1016.4 |
| 20260501173040 | 46 | 288 | 11.0 | 17.0 | 0.00 | 0.34 | 0.33 | 65 | 1016.4 |
| 20260501172910 | 46 | 303 | 10.0 | 18.0 | 0.00 | 0.34 | 0.33 | 67 | 1016.4 |
| 20260501172821 | 46 | 304 | 9.0 | 18.0 | 0.00 | 0.34 | 0.33 | 67 | 1016.3 |
| 20260501172711 | 47 | 276 | 8.0 | 18.0 | 0.00 | 0.34 | 0.33 | 66 | 1016.4 |
| 20260501172622 | 47 | 290 | 9.0 | 18.0 | 0.00 | 0.34 | 0.33 | 65 | 1016.3 |
| 20260501172516 | 46 | 263 | 9.0 | 18.0 | 0.00 | 0.34 | 0.33 | 67 | 1016.4 |
| 20260501172406 | 46 | 269 | 10.0 | 18.0 | 0.00 | 0.34 | 0.33 | 65 | 1016.4 |
| 20260501172316 | 47 | 321 | 11.0 | 18.0 | 0.00 | 0.34 | 0.33 | 64 | 1016.4 |
| 20260501172226 | 47 | 278 | 11.0 | 18.0 | 0.00 | 0.34 | 0.33 | 65 | 1016.4 |
| 20260501172116 | 47 | 317 | 9.0 | 18.0 | 0.00 | 0.34 | 0.33 | 66 | 1016.2 |
| 20260501172006 | 47 | 285 | 7.0 | 14.0 | 0.00 | 0.34 | 0.33 | 67 | 1016.3 |
| 20260501171915 | 47 | 313 | 8.0 | 15.0 | 0.00 | 0.34 | 0.33 | 65 | 1016.4 |
| 20260501171807 | 47 | 298 | 9.0 | 15.0 | 0.00 | 0.34 | 0.33 | 66 | 1016.4 |
| 20260501171718 | 47 | 298 | 8.0 | 15.0 | 0.00 | 0.34 | 0.33 | 66 | 1016.4 |
| 20260501171628 | 46 | 284 | 9.0 | 15.0 | 0.00 | 0.34 | 0.33 | 65 | 1016.3 |
| 20260501171533 | 47 | 308 | 10.0 | 16.0 | 0.00 | 0.34 | 0.33 | 64 | 1016.4 |
| 20260501171402 | 47 | 281 | 7.0 | 16.0 | 0.00 | 0.34 | 0.33 | 65 | 1016.4 |
| 20260501171313 | 47 | 333 | 8.0 | 16.0 | 0.00 | 0.34 | 0.33 | 65 | 1016.3 |
| 20260501171203 | 46 | 294 | 8.0 | 16.0 | 0.00 | 0.34 | 0.33 | 65 | 1016.3 |
| 20260501171114 | 46 | 296 | 9.0 | 16.0 | 0.00 | 0.34 | 0.33 | 66 | 1016.3 |
| 20260501171005 | 46 | 302 | 10.0 | 16.0 | 0.00 | 0.34 | 0.33 | 65 | 1016.3 |
| 20260501170915 | 46 | 299 | 10.0 | 16.0 | 0.00 | 0.34 | 0.33 | 65 | 1016.3 |
| 20260501170827 | 46 | 314 | 10.0 | 16.0 | 0.00 | 0.34 | 0.33 | 64 | 1016.3 |
| 20260501170738 | 47 | 287 | 10.0 | 16.0 | 0.00 | 0.34 | 0.33 | 65 | 1016.3 |
| 20260501170612 | 46 | 317 | 9.0 | 14.0 | 0.00 | 0.34 | 0.33 | 65 | 1016.3 |
| 20260501170522 | 46 | 318 | 6.0 | 13.0 | 0.00 | 0.34 | 0.33 | 66 | 1016.3 |
| 20260501170413 | 46 | 313 | 5.0 | 13.0 | 0.00 | 0.34 | 0.33 | 67 | 1016.2 |
| 20260501170325 | 46 | 322 | 7.0 | 13.0 | 0.00 | 0.34 | 0.33 | 65 | 1016.3 |
| 20260501170233 | 46 | 327 | 10.0 | 15.0 | 0.00 | 0.34 | 0.33 | 64 | 1016.4 |
| 20260501170124 | 46 | 5 | 9.0 | 15.0 | 0.00 | 0.34 | 0.33 | 64 | 1016.3 |
| 20260501165936 | 46 | 335 | 7.0 | 15.0 | 0.00 | 0.34 | 0.33 | 66 | 1016.3 |
| 20260501165807 | 46 | 300 | 9.0 | 15.0 | 0.00 | 0.34 | 0.33 | 64 | 1016.3 |
| 20260501165717 | 46 | 301 | 9.0 | 15.0 | 0.00 | 0.34 | 0.33 | 64 | 1016.3 |
| 20260501165628 | 46 | 322 | 10.0 | 15.0 | 0.00 | 0.34 | 0.33 | 64 | 1016.3 |
| 20260501165537 | 46 | 331 | 9.0 | 15.0 | 0.00 | 0.34 | 0.33 | 64 | 1016.2 |
| 20260501165412 | 46 | 311 | 9.0 | 18.0 | 0.00 | 0.34 | 0.33 | 64 | 1016.3 |
| 20260501165305 | 46 | 317 | 9.0 | 18.0 | 0.00 | 0.34 | 0.33 | 63 | 1016.2 |
| 20260501165214 | 46 | 302 | 8.0 | 18.0 | 0.00 | 0.34 | 0.33 | 63 | 1016.2 |
| 20260501165123 | 46 | 284 | 8.0 | 18.0 | 0.00 | 0.34 | 0.33 | 64 | 1016.2 |
| 20260501165035 | 46 | 280 | 7.0 | 18.0 | 0.00 | 0.34 | 0.33 | 64 | 1016.2 |
| 20260501164923 | 46 | 308 | 7.0 | 18.0 | 0.00 | 0.34 | 0.33 | 63 | 1016.2 |
| 20260501164812 | 46 | 306 | 7.0 | 18.0 | 0.00 | 0.34 | 0.33 | 63 | 1016.3 |
| 20260501164702 | 46 | 295 | 9.0 | 18.0 | 0.00 | 0.34 | 0.33 | 62 | 1016.2 |
| 20260501164613 | 46 | 282 | 8.0 | 18.0 | 0.00 | 0.34 | 0.33 | 61 | 1016.2 |
| 20260501164535 | 46 | 278 | 7.0 | 18.0 | 0.00 | 0.34 | 0.33 | 63 | 1016.2 |
| 20260501164410 | 46 | 305 | 6.0 | 15.0 | 0.00 | 0.34 | 0.33 | 62 | 1016.3 |
| 20260501164302 | 46 | 300 | 5.0 | 15.0 | 0.00 | 0.34 | 0.33 | 64 | 1016.2 |
| 20260501164213 | 45 | 318 | 7.0 | 17.0 | 0.00 | 0.34 | 0.33 | 63 | 1016.2 |
| 20260501164105 | 45 | 282 | 7.0 | 17.0 | 0.00 | 0.34 | 0.33 | 62 | 1016.2 |
| 20260501164017 | 45 | 275 | 6.0 | 17.0 | 0.00 | 0.34 | 0.33 | 62 | 1016.2 |
| 20260501163907 | 45 | 281 | 6.0 | 17.0 | 0.00 | 0.34 | 0.33 | 61 | 1016.2 |
| 20260501163818 | 45 | 257 | 8.0 | 17.0 | 0.00 | 0.34 | 0.33 | 61 | 1016.2 |
| 20260501163709 | 45 | 300 | 11.0 | 17.0 | 0.00 | 0.34 | 0.33 | 60 | 1016.2 |
| 20260501163603 | 46 | 312 | 12.0 | 17.0 | 0.00 | 0.34 | 0.33 | 60 | 1016.3 |
| 20260501163513 | 46 | 286 | 11.0 | 17.0 | 0.00 | 0.34 | 0.33 | 61 | 1016.3 |
| 20260501163424 | 46 | 279 | 9.0 | 17.0 | 0.00 | 0.34 | 0.33 | 63 | 1016.3 |
| 20260501163317 | 46 | 286 | 7.0 | 16.0 | 0.00 | 0.34 | 0.33 | 62 | 1016.3 |
| 20260501163227 | 46 | 290 | 8.0 | 16.0 | 0.00 | 0.34 | 0.33 | 62 | 1016.3 |
| 20260501163117 | 46 | 239 | 10.0 | 16.0 | 0.00 | 0.34 | 0.33 | 60 | 1016.2 |
| 20260501163037 | 46 | 304 | 10.0 | 16.0 | 0.00 | 0.34 | 0.33 | 63 | 1016.3 |
| 20260501162907 | 46 | 304 | 9.0 | 17.0 | 0.00 | 0.34 | 0.33 | 63 | 1016.3 |
| 20260501162818 | 46 | 320 | 9.0 | 17.0 | 0.00 | 0.34 | 0.33 | 63 | 1016.4 |
| 20260501162710 | 46 | 315 | 10.0 | 17.0 | 0.00 | 0.34 | 0.33 | 62 | 1016.3 |
| 20260501162603 | 46 | 284 | 9.0 | 17.0 | 0.00 | 0.34 | 0.33 | 63 | 1016.3 |
| 20260501162514 | 46 | 279 | 8.0 | 17.0 | 0.00 | 0.34 | 0.33 | 64 | 1016.3 |
| 20260501162426 | 46 | 296 | 8.0 | 17.0 | 0.00 | 0.34 | 0.33 | 64 | 1016.3 |
| 20260501162336 | 46 | 319 | 8.0 | 17.0 | 0.00 | 0.34 | 0.33 | 66 | 1016.2 |
| 20260501162205 | 46 | 342 | 10.0 | 17.0 | 0.00 | 0.34 | 0.33 | 64 | 1016.3 |
| 20260501162115 | 46 | 329 | 10.0 | 17.0 | 0.00 | 0.34 | 0.33 | 64 | 1016.3 |
| 20260501162004 | 46 | 303 | 9.0 | 13.0 | 0.00 | 0.34 | 0.33 | 64 | 1016.3 |
| 20260501161915 | 46 | 302 | 7.0 | 13.0 | 0.00 | 0.34 | 0.33 | 66 | 1016.2 |
| 20260501161826 | 46 | 328 | 5.0 | 12.0 | 0.00 | 0.34 | 0.33 | 67 | 1016.3 |
| 20260501161737 | 46 | 333 | 7.0 | 11.0 | 0.00 | 0.34 | 0.33 | 68 | 1016.3 |
| 20260501161622 | 46 | 346 | 8.0 | 13.0 | 0.00 | 0.34 | 0.33 | 66 | 1016.2 |
| 20260501161524 | 46 | 321 | 7.0 | 13.0 | 0.00 | 0.34 | 0.33 | 65 | 1016.2 |
| 20260501161413 | 45 | 306 | 5.0 | 13.0 | 0.00 | 0.34 | 0.33 | 63 | 1016.2 |
| 20260501161304 | 45 | 11 | 6.0 | 13.0 | 0.00 | 0.34 | 0.33 | 63 | 1016.3 |
| 20260501161216 | 45 | 325 | 7.0 | 13.0 | 0.00 | 0.34 | 0.33 | 65 | 1016.3 |
| 20260501161107 | 45 | 324 | 8.0 | 13.0 | 0.00 | 0.34 | 0.33 | 66 | 1016.3 |
| 20260501161019 | 45 | 340 | 9.0 | 13.0 | 0.00 | 0.34 | 0.33 | 66 | 1016.3 |
| 20260501160909 | 45 | 303 | 9.0 | 14.0 | 0.00 | 0.34 | 0.33 | 65 | 1016.2 |
| 20260501160804 | 45 | 336 | 8.0 | 14.0 | 0.00 | 0.34 | 0.33 | 65 | 1016.3 |
| 20260501160715 | 45 | 329 | 7.0 | 14.0 | 0.00 | 0.34 | 0.33 | 64 | 1016.2 |
| 20260501160605 | 45 | 307 | 9.0 | 14.0 | 0.00 | 0.34 | 0.33 | 64 | 1016.2 |
| 20260501160515 | 45 | 306 | 9.0 | 14.0 | 0.00 | 0.34 | 0.33 | 63 | 1016.2 |
| 20260501160407 | 46 | 313 | 9.0 | 14.0 | 0.00 | 0.34 | 0.33 | 66 | 1016.3 |
| 20260501160319 | 46 | 327 | 8.0 | 14.0 | 0.00 | 0.34 | 0.33 | 68 | 1016.2 |
| 20260501160229 | 46 | 319 | 9.0 | 14.0 | 0.00 | 0.34 | 0.33 | 66 | 1016.3 |
| 20260501160120 | 46 | 21 | 9.0 | 14.0 | 0.00 | 0.34 | 0.33 | 66 | 1016.2 |
| 20260501160043 | 46 | 337 | 9.0 | 14.0 | 0.00 | 0.34 | 0.33 | 67 | 1016.2 |
| 20260501155932 | 46 | 317 | 8.0 | 14.0 | 0.00 | 0.34 | 0.33 | 67 | 1016.1 |
| 20260501155821 | 45 | 5 | 6.0 | 14.0 | 0.00 | 0.34 | 0.33 | 67 | 1016.2 |
| 20260501155735 | 45 | 15 | 7.0 | 14.0 | 0.00 | 0.34 | 0.33 | 66 | 1016.2 |
| 20260501155645 | 45 | 355 | 7.0 | 14.0 | 0.00 | 0.34 | 0.33 | 67 | 1016.3 |
| 20260501155537 | 45 | 360 | 6.0 | 14.0 | 0.00 | 0.34 | 0.33 | 68 | 1016.2 |
| 20260501155428 | 45 | 346 | 9.0 | 14.0 | 0.00 | 0.34 | 0.33 | 66 | 1016.3 |
| 20260501155317 | 45 | 17 | 9.0 | 14.0 | 0.00 | 0.34 | 0.33 | 69 | 1016.2 |
| 20260501155228 | 45 | 5 | 9.0 | 14.0 | 0.00 | 0.34 | 0.33 | 67 | 1016.2 |
| 20260501155140 | 45 | 313 | 8.0 | 13.0 | 0.00 | 0.34 | 0.33 | 68 | 1016.2 |
| 20260501155010 | 45 | 342 | 7.0 | 13.0 | 0.00 | 0.34 | 0.33 | 67 | 1016.2 |
| 20260501154921 | 45 | 323 | 7.0 | 15.0 | 0.00 | 0.34 | 0.33 | 65 | 1016.1 |
| 20260501154833 | 45 | 313 | 8.0 | 15.0 | 0.00 | 0.34 | 0.33 | 65 | 1016.2 |
| 20260501154702 | 45 | 311 | 9.0 | 15.0 | 0.00 | 0.34 | 0.33 | 66 | 1016.2 |
| 20260501154616 | 45 | 329 | 9.0 | 15.0 | 0.00 | 0.34 | 0.33 | 66 | 1016.2 |
| 20260501154537 | 45 | 295 | 8.0 | 15.0 | 0.00 | 0.34 | 0.33 | 66 | 1016.2 |
| 20260501154426 | 45 | 309 | 7.0 | 15.0 | 0.00 | 0.34 | 0.33 | 67 | 1016.2 |
| 20260501154337 | 45 | 333 | 7.0 | 15.0 | 0.00 | 0.34 | 0.33 | 65 | 1016.2 |
| 20260501154206 | 45 | 314 | 8.0 | 15.0 | 0.00 | 0.34 | 0.33 | 67 | 1016.2 |
| 20260501154118 | 45 | 17 | 8.0 | 15.0 | 0.00 | 0.34 | 0.33 | 67 | 1016.1 |
| 20260501154008 | 46 | 339 | 8.0 | 13.0 | 0.00 | 0.34 | 0.33 | 66 | 1016.2 |